GEFSSGP_prec_meanprecacc_186.txt.gz
Total_Precipitation_Accumulation
0.04 0.05 0.05 0.06 0.05 0.03 0.00 0.00 0.00 0.00 0.00 0.00 0.00 0.00 0.00 0.00 0.00 0.00 0.00 0.00 0.02 0.03 0.05 0.14 0.21 0.24 0.30 0.32 0.29 0.25 0.22 0.25 0.28 0.29 0.31 0.34 0.32 0.30 0.30 0.29 0.30 0.34 0.39 0.38 0.36 0.36 0.36 0.31 0.27
0.05 0.07 0.08 0.09 0.04 0.01 0.00 0.00 0.00 0.00 0.00 0.00 0.00 0.00 0.00 0.00 0.00 0.00 0.00 0.00 0.01 0.01 0.03 0.09 0.19 0.25 0.30 0.31 0.29 0.25 0.24 0.25 0.27 0.30 0.31 0.33 0.32 0.30 0.28 0.27 0.30 0.35 0.41 0.44 0.44 0.41 0.38 0.32 0.29
0.08 0.12 0.11 0.09 0.04 0.00 0.00 0.00 0.00 0.00 0.00 0.00 0.00 0.00 0.00 0.00 0.00 0.00 0.00 0.00 0.00 0.01 0.03 0.09 0.20 0.26 0.31 0.34 0.31 0.28 0.27 0.28 0.29 0.31 0.33 0.37 0.33 0.31 0.27 0.25 0.25 0.31 0.39 0.45 0.46 0.42 0.38 0.36 0.33
0.10 0.16 0.14 0.09 0.02 0.00 0.00 0.00 0.00 0.00 0.00 0.00 0.00 0.00 0.00 0.00 0.00 0.00 0.00 0.00 0.01 0.02 0.03 0.11 0.21 0.28 0.33 0.35 0.34 0.31 0.30 0.32 0.33 0.35 0.38 0.42 0.39 0.34 0.30 0.25 0.23 0.24 0.31 0.38 0.39 0.37 0.38 0.39 0.34
0.15 0.17 0.15 0.07 0.01 0.00 0.00 0.00 0.00 0.00 0.00 0.00 0.00 0.00 0.00 0.00 0.00 0.00 0.00 0.00 0.01 0.02 0.04 0.13 0.24 0.31 0.35 0.37 0.36 0.35 0.35 0.37 0.39 0.40 0.45 0.47 0.44 0.40 0.35 0.31 0.26 0.22 0.22 0.27 0.31 0.32 0.35 0.38 0.34
0.21 0.20 0.13 0.05 0.01 0.00 0.00 0.00 0.00 0.00 0.00 0.00 0.00 0.00 0.00 0.00 0.00 0.00 0.00 0.01 0.01 0.02 0.06 0.15 0.28 0.35 0.39 0.41 0.40 0.41 0.41 0.44 0.45 0.46 0.50 0.50 0.47 0.45 0.40 0.36 0.30 0.25 0.22 0.21 0.22 0.26 0.30 0.33 0.34
0.21 0.21 0.12 0.05 0.02 0.01 0.01 0.00 0.01 0.00 0.00 0.00 0.00 0.01 0.01 0.01 0.01 0.01 0.01 0.02 0.03 0.04 0.08 0.17 0.28 0.35 0.43 0.46 0.45 0.45 0.46 0.47 0.51 0.51 0.52 0.52 0.49 0.49 0.48 0.42 0.34 0.31 0.29 0.25 0.21 0.20 0.21 0.22 0.26
0.24 0.28 0.15 0.06 0.03 0.02 0.00 0.00 0.01 0.01 0.01 0.00 0.01 0.01 0.01 0.01 0.01 0.02 0.03 0.04 0.05 0.08 0.12 0.19 0.29 0.35 0.42 0.47 0.51 0.49 0.50 0.52 0.56 0.56 0.54 0.51 0.52 0.54 0.51 0.43 0.36 0.36 0.35 0.30 0.26 0.23 0.19 0.17 0.17
0.35 0.40 0.19 0.06 0.04 0.03 0.02 0.02 0.01 0.01 0.02 0.01 0.01 0.01 0.01 0.01 0.02 0.03 0.06 0.08 0.11 0.14 0.18 0.25 0.34 0.40 0.45 0.50 0.54 0.59 0.61 0.63 0.66 0.64 0.60 0.60 0.58 0.54 0.46 0.39 0.37 0.38 0.38 0.32 0.30 0.28 0.23 0.19 0.13
0.38 0.33 0.15 0.04 0.03 0.05 0.05 0.05 0.04 0.04 0.03 0.02 0.02 0.02 0.02 0.02 0.03 0.05 0.07 0.09 0.12 0.16 0.21 0.28 0.38 0.44 0.52 0.55 0.64 0.74 0.71 0.70 0.67 0.60 0.58 0.60 0.55 0.51 0.46 0.41 0.40 0.42 0.40 0.36 0.33 0.30 0.27 0.21 0.16
0.30 0.23 0.10 0.06 0.04 0.07 0.07 0.07 0.08 0.09 0.07 0.03 0.04 0.04 0.03 0.04 0.06 0.09 0.11 0.11 0.11 0.13 0.20 0.28 0.40 0.49 0.54 0.57 0.66 0.74 0.73 0.70 0.69 0.63 0.60 0.59 0.62 0.58 0.54 0.50 0.50 0.48 0.43 0.41 0.38 0.38 0.34 0.31 0.30
0.23 0.16 0.11 0.09 0.09 0.10 0.11 0.10 0.10 0.10 0.08 0.04 0.04 0.06 0.06 0.07 0.08 0.10 0.12 0.12 0.13 0.16 0.23 0.31 0.43 0.52 0.54 0.55 0.61 0.67 0.64 0.60 0.61 0.62 0.63 0.64 0.65 0.62 0.60 0.56 0.57 0.56 0.53 0.48 0.44 0.39 0.36 0.33 0.31
0.21 0.12 0.09 0.10 0.12 0.13 0.13 0.11 0.10 0.07 0.04 0.05 0.05 0.06 0.08 0.08 0.09 0.09 0.11 0.17 0.17 0.19 0.26 0.38 0.46 0.53 0.59 0.61 0.65 0.68 0.61 0.54 0.55 0.59 0.61 0.57 0.51 0.48 0.46 0.45 0.43 0.40 0.39 0.37 0.37 0.37 0.33 0.30 0.26
0.17 0.12 0.09 0.10 0.12 0.14 0.15 0.11 0.09 0.05 0.03 0.05 0.07 0.07 0.07 0.08 0.09 0.10 0.12 0.18 0.22 0.22 0.29 0.42 0.50 0.56 0.63 0.62 0.65 0.66 0.61 0.57 0.59 0.57 0.54 0.51 0.45 0.40 0.37 0.36 0.34 0.31 0.28 0.25 0.24 0.23 0.23 0.23 0.21
0.20 0.21 0.15 0.09 0.10 0.12 0.19 0.18 0.07 0.04 0.04 0.07 0.09 0.08 0.07 0.08 0.10 0.11 0.12 0.14 0.20 0.25 0.33 0.44 0.54 0.65 0.70 0.68 0.68 0.71 0.67 0.63 0.61 0.59 0.55 0.52 0.46 0.42 0.40 0.37 0.33 0.29 0.28 0.27 0.25 0.24 0.20 0.18 0.17
0.30 0.34 0.26 0.10 0.08 0.12 0.27 0.23 0.06 0.04 0.08 0.10 0.10 0.09 0.09 0.08 0.10 0.13 0.15 0.16 0.20 0.28 0.38 0.47 0.59 0.71 0.77 0.76 0.75 0.74 0.73 0.72 0.68 0.63 0.61 0.56 0.49 0.45 0.42 0.41 0.38 0.34 0.33 0.32 0.31 0.27 0.24 0.20 0.17
0.40 0.37 0.21 0.09 0.07 0.14 0.27 0.20 0.05 0.05 0.09 0.10 0.11 0.11 0.10 0.10 0.11 0.14 0.17 0.19 0.21 0.28 0.39 0.50 0.59 0.73 0.81 0.86 0.83 0.81 0.76 0.78 0.76 0.69 0.63 0.60 0.53 0.48 0.45 0.43 0.44 0.43 0.44 0.41 0.35 0.32 0.28 0.25 0.20
0.38 0.25 0.15 0.08 0.08 0.14 0.19 0.14 0.06 0.06 0.09 0.10 0.11 0.12 0.12 0.14 0.15 0.17 0.20 0.23 0.25 0.28 0.38 0.50 0.62 0.79 0.88 0.99 1.03 1.00 0.93 0.84 0.82 0.78 0.67 0.60 0.57 0.53 0.50 0.48 0.48 0.50 0.50 0.47 0.42 0.35 0.31 0.29 0.26
0.25 0.25 0.17 0.07 0.06 0.15 0.14 0.10 0.08 0.08 0.10 0.11 0.11 0.14 0.15 0.16 0.19 0.21 0.26 0.32 0.34 0.37 0.42 0.50 0.64 0.81 0.96 1.05 1.11 1.06 0.99 0.86 0.83 0.81 0.75 0.66 0.60 0.60 0.57 0.53 0.53 0.51 0.51 0.48 0.44 0.41 0.39 0.34 0.30
0.27 0.31 0.23 0.12 0.08 0.17 0.16 0.10 0.07 0.08 0.11 0.13 0.13 0.16 0.18 0.16 0.18 0.19 0.24 0.34 0.39 0.42 0.45 0.49 0.61 0.72 0.90 1.01 1.02 1.07 1.00 0.92 0.83 0.82 0.79 0.71 0.62 0.63 0.67 0.61 0.57 0.54 0.51 0.51 0.51 0.47 0.45 0.42 0.37
0.31 0.29 0.22 0.18 0.15 0.20 0.23 0.16 0.06 0.05 0.07 0.10 0.11 0.13 0.16 0.17 0.18 0.19 0.23 0.31 0.40 0.43 0.46 0.50 0.56 0.64 0.76 1.00 1.18 1.27 1.30 1.18 1.01 0.90 0.84 0.73 0.65 0.60 0.65 0.68 0.63 0.59 0.55 0.51 0.50 0.48 0.45 0.44 0.37
0.35 0.19 0.19 0.23 0.36 0.37 0.32 0.34 0.08 0.04 0.05 0.07 0.09 0.10 0.11 0.14 0.15 0.16 0.20 0.27 0.34 0.40 0.48 0.56 0.57 0.64 0.74 0.92 1.20 1.31 1.36 1.24 0.98 0.83 0.82 0.78 0.70 0.64 0.60 0.67 0.69 0.66 0.62 0.55 0.50 0.48 0.46 0.50 0.48
0.26 0.19 0.22 0.28 0.44 0.53 0.37 0.42 0.14 0.06 0.07 0.06 0.06 0.08 0.09 0.12 0.14 0.13 0.16 0.21 0.28 0.40 0.49 0.59 0.65 0.69 0.79 0.88 1.07 1.26 1.37 1.30 1.16 1.01 0.90 0.85 0.81 0.75 0.66 0.64 0.68 0.69 0.67 0.61 0.53 0.49 0.49 0.50 0.53
0.22 0.28 0.37 0.45 0.75 0.98 0.37 0.34 0.20 0.11 0.13 0.10 0.08 0.09 0.10 0.12 0.15 0.13 0.13 0.16 0.25 0.37 0.46 0.58 0.70 0.72 0.81 0.87 0.97 1.11 1.27 1.39 1.36 1.25 1.10 0.97 0.91 0.85 0.81 0.68 0.67 0.68 0.68 0.65 0.57 0.51 0.48 0.47 0.47
0.41 0.74 1.13 1.22 1.33 0.86 0.18 0.24 0.22 0.12 0.09 0.12 0.14 0.12 0.12 0.12 0.13 0.13 0.12 0.14 0.19 0.33 0.44 0.56 0.71 0.70 0.77 0.84 0.92 1.00 1.13 1.28 1.40 1.32 1.17 1.08 1.04 0.94 0.84 0.79 0.71 0.71 0.68 0.65 0.62 0.59 0.51 0.46 0.48
0.45 0.69 1.00 0.92 0.59 0.22 0.11 0.18 0.17 0.10 0.06 0.06 0.08 0.11 0.12 0.11 0.11 0.13 0.13 0.14 0.16 0.24 0.35 0.44 0.64 0.68 0.71 0.77 0.82 0.93 1.05 1.16 1.27 1.32 1.22 1.13 1.06 0.95 0.84 0.81 0.76 0.72 0.73 0.72 0.68 0.63 0.57 0.52 0.50
0.42 0.46 0.44 0.64 0.48 0.29 0.20 0.15 0.11 0.06 0.04 0.03 0.04 0.06 0.09 0.12 0.11 0.11 0.14 0.15 0.16 0.20 0.30 0.39 0.60 0.67 0.66 0.70 0.75 0.84 0.95 1.07 1.14 1.20 1.23 1.16 1.09 1.03 0.96 0.89 0.86 0.80 0.78 0.75 0.73 0.70 0.61 0.59 0.58
0.36 0.45 0.49 0.82 0.82 0.51 0.29 0.17 0.17 0.12 0.08 0.06 0.06 0.07 0.08 0.10 0.10 0.09 0.13 0.13 0.14 0.17 0.25 0.35 0.51 0.66 0.67 0.68 0.72 0.79 0.83 0.96 1.05 1.13 1.19 1.16 1.13 1.08 1.09 1.05 1.00 0.92 0.89 0.85 0.81 0.77 0.68 0.65 0.63
0.42 0.54 0.71 0.75 0.61 0.51 0.40 0.28 0.25 0.18 0.14 0.11 0.09 0.07 0.08 0.09 0.10 0.10 0.12 0.12 0.13 0.15 0.21 0.32 0.45 0.60 0.69 0.71 0.70 0.77 0.82 0.90 0.97 0.99 1.06 1.16 1.18 1.14 1.14 1.15 1.13 1.08 0.99 0.97 0.95 0.88 0.83 0.77 0.69
0.45 0.53 0.63 0.78 0.61 0.35 0.36 0.32 0.22 0.15 0.13 0.12 0.10 0.07 0.07 0.08 0.09 0.10 0.11 0.12 0.12 0.15 0.19 0.27 0.42 0.57 0.65 0.70 0.73 0.73 0.82 0.92 0.95 0.92 0.91 0.99 1.11 1.16 1.19 1.26 1.28 1.23 1.12 1.03 1.03 1.03 0.98 0.96 0.87

GEFSSGP_prec_meanprecacc_192.txt.gz
Total_Precipitation_Accumulation
0.05 0.05 0.05 0.06 0.05 0.03 0.00 0.00 0.00 0.00 0.00 0.00 0.00 0.00 0.00 0.00 0.00 0.00 0.00 0.00 0.02 0.03 0.05 0.14 0.21 0.25 0.31 0.34 0.32 0.29 0.26 0.30 0.34 0.35 0.39 0.45 0.44 0.40 0.40 0.37 0.37 0.39 0.44 0.44 0.43 0.42 0.41 0.35 0.31
0.05 0.08 0.09 0.09 0.05 0.01 0.00 0.00 0.00 0.00 0.00 0.00 0.00 0.00 0.00 0.00 0.00 0.00 0.00 0.00 0.01 0.01 0.03 0.09 0.19 0.25 0.30 0.33 0.31 0.29 0.28 0.29 0.33 0.35 0.38 0.42 0.43 0.43 0.40 0.37 0.38 0.43 0.49 0.53 0.52 0.49 0.46 0.40 0.36
0.09 0.12 0.11 0.09 0.04 0.00 0.00 0.00 0.00 0.00 0.00 0.00 0.00 0.00 0.00 0.00 0.00 0.00 0.00 0.00 0.00 0.01 0.03 0.09 0.20 0.26 0.32 0.35 0.33 0.31 0.31 0.32 0.34 0.36 0.40 0.45 0.42 0.41 0.38 0.36 0.35 0.40 0.50 0.56 0.56 0.49 0.45 0.43 0.41
0.11 0.16 0.14 0.09 0.02 0.00 0.00 0.00 0.00 0.00 0.00 0.00 0.00 0.00 0.00 0.00 0.00 0.00 0.00 0.00 0.01 0.02 0.03 0.11 0.21 0.28 0.33 0.36 0.36 0.34 0.34 0.37 0.38 0.39 0.43 0.48 0.47 0.43 0.40 0.36 0.33 0.35 0.42 0.49 0.49 0.45 0.45 0.45 0.40
0.16 0.17 0.15 0.07 0.01 0.00 0.00 0.00 0.00 0.00 0.00 0.00 0.00 0.00 0.00 0.00 0.00 0.00 0.00 0.00 0.01 0.02 0.04 0.13 0.24 0.32 0.36 0.38 0.37 0.38 0.38 0.41 0.43 0.45 0.49 0.52 0.51 0.48 0.45 0.43 0.37 0.34 0.34 0.38 0.41 0.41 0.42 0.44 0.39
0.22 0.20 0.14 0.05 0.01 0.00 0.00 0.00 0.00 0.00 0.00 0.00 0.00 0.00 0.00 0.00 0.00 0.00 0.00 0.01 0.01 0.02 0.06 0.15 0.29 0.35 0.40 0.42 0.41 0.43 0.44 0.48 0.49 0.51 0.54 0.55 0.52 0.51 0.48 0.46 0.40 0.34 0.32 0.31 0.32 0.34 0.37 0.38 0.38
0.21 0.21 0.12 0.05 0.02 0.01 0.01 0.00 0.01 0.00 0.00 0.00 0.00 0.01 0.01 0.01 0.01 0.01 0.01 0.02 0.03 0.04 0.08 0.17 0.28 0.36 0.43 0.46 0.46 0.47 0.49 0.50 0.54 0.56 0.56 0.56 0.54 0.54 0.55 0.50 0.44 0.40 0.38 0.34 0.29 0.28 0.28 0.28 0.31
0.25 0.29 0.15 0.06 0.03 0.02 0.00 0.00 0.01 0.01 0.01 0.00 0.01 0.01 0.01 0.01 0.01 0.02 0.03 0.04 0.05 0.08 0.12 0.19 0.29 0.35 0.42 0.48 0.52 0.51 0.53 0.56 0.59 0.60 0.58 0.54 0.56 0.58 0.56 0.49 0.43 0.43 0.43 0.39 0.35 0.30 0.26 0.23 0.22
0.35 0.40 0.19 0.06 0.04 0.03 0.02 0.02 0.01 0.01 0.02 0.01 0.01 0.01 0.01 0.01 0.02 0.03 0.06 0.08 0.11 0.14 0.18 0.26 0.34 0.40 0.45 0.51 0.55 0.61 0.65 0.69 0.71 0.68 0.64 0.63 0.61 0.58 0.50 0.43 0.42 0.44 0.45 0.40 0.38 0.36 0.30 0.26 0.20
0.38 0.34 0.15 0.04 0.03 0.05 0.05 0.05 0.04 0.04 0.03 0.02 0.02 0.02 0.02 0.02 0.03 0.05 0.07 0.09 0.12 0.16 0.21 0.28 0.39 0.45 0.52 0.56 0.65 0.75 0.76 0.77 0.76 0.66 0.63 0.64 0.58 0.55 0.50 0.45 0.45 0.48 0.47 0.44 0.43 0.41 0.37 0.31 0.22
0.30 0.23 0.10 0.06 0.04 0.07 0.07 0.07 0.08 0.09 0.07 0.03 0.04 0.04 0.03 0.04 0.06 0.09 0.11 0.11 0.11 0.13 0.20 0.28 0.40 0.51 0.56 0.59 0.67 0.76 0.78 0.77 0.77 0.72 0.67 0.65 0.66 0.62 0.59 0.55 0.55 0.54 0.51 0.50 0.49 0.50 0.46 0.40 0.35
0.23 0.16 0.11 0.09 0.09 0.10 0.11 0.10 0.10 0.10 0.08 0.04 0.04 0.06 0.06 0.07 0.08 0.10 0.12 0.12 0.14 0.17 0.23 0.32 0.44 0.53 0.56 0.57 0.63 0.69 0.71 0.69 0.69 0.69 0.71 0.71 0.70 0.66 0.64 0.61 0.62 0.62 0.60 0.56 0.54 0.51 0.48 0.44 0.39
0.21 0.12 0.09 0.10 0.12 0.13 0.13 0.11 0.10 0.07 0.04 0.05 0.05 0.06 0.08 0.08 0.09 0.09 0.11 0.17 0.18 0.20 0.27 0.38 0.46 0.54 0.60 0.63 0.67 0.71 0.67 0.63 0.64 0.67 0.71 0.66 0.58 0.54 0.51 0.49 0.48 0.45 0.44 0.43 0.44 0.45 0.44 0.42 0.37
0.17 0.12 0.09 0.11 0.12 0.14 0.15 0.11 0.09 0.05 0.03 0.05 0.07 0.07 0.07 0.08 0.09 0.10 0.12 0.18 0.22 0.23 0.30 0.42 0.51 0.57 0.65 0.64 0.67 0.69 0.68 0.65 0.67 0.65 0.61 0.58 0.52 0.47 0.43 0.41 0.38 0.35 0.33 0.31 0.31 0.31 0.32 0.32 0.31
0.20 0.21 0.15 0.09 0.10 0.12 0.19 0.18 0.07 0.04 0.04 0.07 0.09 0.08 0.07 0.08 0.10 0.11 0.12 0.14 0.20 0.26 0.34 0.44 0.55 0.66 0.72 0.70 0.71 0.74 0.73 0.69 0.67 0.66 0.60 0.58 0.53 0.48 0.46 0.43 0.38 0.33 0.33 0.34 0.34 0.33 0.30 0.27 0.26
0.30 0.35 0.26 0.10 0.08 0.12 0.27 0.23 0.06 0.04 0.08 0.10 0.10 0.09 0.09 0.08 0.10 0.13 0.15 0.16 0.20 0.29 0.39 0.47 0.59 0.73 0.80 0.79 0.78 0.77 0.77 0.77 0.74 0.69 0.66 0.60 0.55 0.51 0.49 0.48 0.44 0.39 0.39 0.40 0.40 0.37 0.34 0.30 0.27
0.41 0.37 0.22 0.09 0.08 0.15 0.27 0.20 0.05 0.05 0.09 0.10 0.11 0.11 0.10 0.10 0.11 0.14 0.17 0.19 0.21 0.29 0.39 0.50 0.60 0.74 0.85 0.90 0.86 0.85 0.80 0.82 0.82 0.75 0.68 0.64 0.58 0.54 0.51 0.50 0.50 0.49 0.50 0.48 0.44 0.40 0.37 0.34 0.30
0.38 0.25 0.16 0.09 0.08 0.14 0.19 0.14 0.06 0.06 0.09 0.10 0.11 0.12 0.12 0.14 0.15 0.17 0.20 0.23 0.25 0.29 0.38 0.51 0.63 0.80 0.90 1.04 1.07 1.04 0.98 0.89 0.86 0.83 0.72 0.65 0.62 0.60 0.57 0.55 0.55 0.57 0.56 0.55 0.50 0.43 0.39 0.37 0.35
0.25 0.25 0.18 0.07 0.06 0.15 0.15 0.10 0.08 0.08 0.10 0.11 0.11 0.14 0.15 0.16 0.19 0.21 0.26 0.32 0.35 0.37 0.42 0.51 0.65 0.81 0.98 1.08 1.16 1.12 1.06 0.93 0.88 0.86 0.81 0.71 0.66 0.67 0.66 0.61 0.62 0.59 0.58 0.55 0.53 0.51 0.48 0.43 0.39
0.28 0.32 0.23 0.13 0.08 0.17 0.17 0.10 0.07 0.08 0.11 0.13 0.13 0.16 0.18 0.16 0.18 0.19 0.24 0.35 0.41 0.43 0.46 0.50 0.61 0.73 0.91 1.03 1.08 1.14 1.08 1.00 0.91 0.87 0.85 0.78 0.68 0.71 0.76 0.71 0.65 0.63 0.58 0.58 0.60 0.57 0.56 0.54 0.47
0.32 0.29 0.23 0.18 0.15 0.20 0.23 0.16 0.06 0.05 0.07 0.10 0.11 0.13 0.16 0.17 0.18 0.19 0.23 0.32 0.41 0.44 0.49 0.53 0.58 0.65 0.77 1.02 1.24 1.35 1.39 1.27 1.10 0.98 0.89 0.80 0.72 0.67 0.74 0.78 0.72 0.67 0.62 0.58 0.57 0.56 0.54 0.55 0.48
0.35 0.19 0.19 0.23 0.36 0.37 0.32 0.34 0.08 0.04 0.05 0.07 0.09 0.10 0.11 0.14 0.15 0.16 0.20 0.28 0.36 0.43 0.53 0.62 0.61 0.67 0.77 0.94 1.25 1.41 1.45 1.33 1.07 0.90 0.86 0.84 0.78 0.71 0.68 0.75 0.77 0.74 0.70 0.63 0.58 0.56 0.54 0.58 0.59
0.26 0.19 0.23 0.28 0.45 0.54 0.37 0.42 0.14 0.06 0.07 0.06 0.06 0.08 0.09 0.12 0.14 0.13 0.16 0.21 0.31 0.44 0.55 0.67 0.72 0.77 0.85 0.93 1.12 1.35 1.46 1.38 1.23 1.08 0.96 0.90 0.88 0.83 0.75 0.72 0.76 0.77 0.75 0.71 0.65 0.60 0.60 0.60 0.63
0.23 0.29 0.37 0.45 0.75 0.99 0.37 0.35 0.20 0.11 0.13 0.10 0.08 0.09 0.10 0.12 0.15 0.13 0.13 0.17 0.27 0.42 0.50 0.64 0.76 0.81 0.92 0.98 1.09 1.21 1.38 1.48 1.44 1.32 1.18 1.04 0.99 0.94 0.91 0.78 0.75 0.76 0.74 0.74 0.70 0.64 0.62 0.62 0.60
0.41 0.75 1.14 1.24 1.34 0.86 0.18 0.24 0.22 0.12 0.09 0.12 0.14 0.12 0.12 0.12 0.14 0.13 0.12 0.14 0.21 0.39 0.49 0.60 0.75 0.78 0.88 0.95 1.03 1.14 1.28 1.44 1.54 1.43 1.26 1.17 1.13 1.04 0.95 0.90 0.81 0.78 0.74 0.72 0.72 0.72 0.64 0.60 0.62
0.45 0.70 1.00 0.93 0.59 0.22 0.11 0.18 0.17 0.10 0.06 0.06 0.08 0.11 0.12 0.12 0.12 0.14 0.14 0.14 0.18 0.27 0.39 0.51 0.69 0.74 0.77 0.85 0.92 1.05 1.22 1.38 1.47 1.48 1.33 1.23 1.16 1.06 0.95 0.91 0.85 0.79 0.79 0.79 0.76 0.74 0.69 0.65 0.62
0.43 0.46 0.44 0.65 0.48 0.29 0.20 0.15 0.11 0.06 0.04 0.03 0.04 0.06 0.09 0.12 0.11 0.12 0.15 0.15 0.18 0.23 0.32 0.43 0.64 0.72 0.70 0.75 0.82 0.93 1.07 1.24 1.33 1.40 1.38 1.27 1.21 1.15 1.09 1.00 0.96 0.88 0.86 0.83 0.82 0.79 0.72 0.71 0.69
0.36 0.45 0.49 0.83 0.83 0.51 0.29 0.17 0.17 0.12 0.08 0.06 0.06 0.07 0.08 0.10 0.10 0.10 0.13 0.14 0.17 0.21 0.29 0.38 0.55 0.70 0.71 0.72 0.78 0.87 0.93 1.07 1.20 1.33 1.43 1.34 1.28 1.23 1.24 1.19 1.14 1.04 1.00 0.96 0.92 0.88 0.78 0.76 0.74
0.42 0.55 0.71 0.76 0.61 0.52 0.40 0.28 0.25 0.18 0.14 0.11 0.09 0.08 0.08 0.09 0.10 0.10 0.12 0.12 0.15 0.18 0.24 0.36 0.49 0.63 0.72 0.75 0.75 0.84 0.92 1.03 1.10 1.14 1.24 1.35 1.35 1.29 1.30 1.32 1.30 1.25 1.15 1.11 1.09 1.03 0.95 0.89 0.80
0.46 0.53 0.63 0.78 0.62 0.35 0.36 0.32 0.22 0.15 0.13 0.12 0.10 0.08 0.07 0.08 0.09 0.10 0.11 0.12 0.13 0.16 0.21 0.30 0.45 0.60 0.68 0.74 0.78 0.79 0.90 1.03 1.06 1.03 1.03 1.13 1.25 1.28 1.30 1.39 1.42 1.39 1.29 1.21 1.21 1.21 1.13 1.08 1.00

GEFSSGP_prec_meanprecacc_198.txt.gz
Total_Precipitation_Accumulation
0.05 0.05 0.05 0.06 0.05 0.03 0.00 0.00 0.00 0.00 0.00 0.00 0.00 0.00 0.00 0.00 0.00 0.00 0.00 0.00 0.02 0.03 0.05 0.14 0.21 0.25 0.31 0.34 0.32 0.29 0.27 0.32 0.36 0.37 0.41 0.47 0.46 0.43 0.43 0.41 0.41 0.43 0.49 0.50 0.49 0.49 0.47 0.40 0.37
0.05 0.08 0.09 0.09 0.05 0.01 0.00 0.00 0.00 0.00 0.00 0.00 0.00 0.00 0.00 0.00 0.00 0.00 0.00 0.00 0.01 0.01 0.03 0.09 0.19 0.25 0.31 0.33 0.31 0.29 0.28 0.30 0.34 0.38 0.41 0.44 0.45 0.45 0.44 0.41 0.41 0.46 0.54 0.58 0.58 0.56 0.53 0.46 0.41
0.09 0.12 0.11 0.09 0.04 0.00 0.00 0.00 0.00 0.00 0.00 0.00 0.00 0.00 0.00 0.00 0.00 0.00 0.00 0.00 0.00 0.01 0.03 0.09 0.20 0.26 0.32 0.35 0.33 0.31 0.31 0.32 0.35 0.38 0.42 0.48 0.46 0.44 0.41 0.39 0.39 0.45 0.55 0.61 0.62 0.56 0.52 0.49 0.47
0.11 0.16 0.15 0.09 0.02 0.00 0.00 0.00 0.00 0.00 0.00 0.00 0.00 0.00 0.00 0.00 0.00 0.00 0.00 0.00 0.01 0.02 0.03 0.11 0.21 0.28 0.33 0.36 0.36 0.34 0.34 0.37 0.39 0.41 0.45 0.51 0.51 0.48 0.44 0.39 0.38 0.39 0.46 0.54 0.55 0.52 0.52 0.51 0.45
0.16 0.17 0.15 0.07 0.01 0.00 0.00 0.00 0.00 0.00 0.00 0.00 0.00 0.00 0.00 0.00 0.00 0.00 0.00 0.00 0.01 0.02 0.04 0.13 0.24 0.32 0.36 0.38 0.38 0.39 0.39 0.42 0.44 0.46 0.51 0.54 0.54 0.52 0.49 0.45 0.41 0.38 0.39 0.43 0.46 0.47 0.49 0.50 0.44
0.22 0.21 0.14 0.05 0.01 0.00 0.00 0.00 0.00 0.00 0.00 0.00 0.00 0.00 0.00 0.00 0.00 0.00 0.00 0.01 0.01 0.02 0.06 0.15 0.29 0.35 0.40 0.43 0.42 0.44 0.46 0.49 0.50 0.52 0.56 0.57 0.55 0.54 0.51 0.49 0.43 0.38 0.37 0.36 0.37 0.40 0.43 0.44 0.42
0.22 0.22 0.12 0.05 0.02 0.01 0.01 0.00 0.01 0.00 0.00 0.00 0.00 0.01 0.01 0.01 0.01 0.01 0.01 0.02 0.03 0.04 0.08 0.17 0.29 0.36 0.44 0.47 0.47 0.48 0.51 0.52 0.56 0.57 0.58 0.58 0.56 0.56 0.57 0.53 0.46 0.43 0.41 0.38 0.34 0.33 0.34 0.33 0.36
0.25 0.29 0.15 0.06 0.03 0.02 0.00 0.00 0.01 0.01 0.01 0.00 0.01 0.01 0.01 0.01 0.01 0.02 0.03 0.04 0.05 0.08 0.12 0.19 0.29 0.36 0.42 0.48 0.53 0.52 0.54 0.57 0.61 0.62 0.60 0.57 0.58 0.60 0.58 0.52 0.46 0.46 0.46 0.42 0.38 0.35 0.32 0.28 0.27
0.35 0.40 0.19 0.06 0.04 0.03 0.02 0.02 0.01 0.01 0.02 0.01 0.01 0.01 0.01 0.01 0.02 0.03 0.06 0.08 0.11 0.14 0.18 0.26 0.34 0.40 0.46 0.51 0.56 0.62 0.66 0.71 0.73 0.70 0.66 0.66 0.64 0.61 0.53 0.46 0.45 0.47 0.48 0.43 0.41 0.40 0.36 0.32 0.25
0.38 0.34 0.15 0.04 0.03 0.05 0.05 0.05 0.04 0.04 0.03 0.02 0.02 0.02 0.02 0.02 0.03 0.05 0.07 0.09 0.12 0.16 0.21 0.28 0.39 0.45 0.53 0.56 0.65 0.76 0.77 0.79 0.78 0.68 0.64 0.66 0.60 0.58 0.53 0.48 0.47 0.51 0.50 0.47 0.46 0.45 0.43 0.37 0.27
0.30 0.23 0.10 0.06 0.04 0.07 0.07 0.07 0.08 0.09 0.07 0.03 0.04 0.04 0.03 0.04 0.06 0.09 0.11 0.11 0.11 0.13 0.20 0.28 0.40 0.51 0.56 0.59 0.67 0.77 0.80 0.79 0.79 0.74 0.69 0.67 0.68 0.65 0.62 0.58 0.59 0.57 0.54 0.53 0.52 0.55 0.50 0.45 0.40
0.23 0.16 0.11 0.09 0.09 0.10 0.11 0.10 0.10 0.10 0.08 0.04 0.04 0.06 0.06 0.07 0.08 0.10 0.12 0.12 0.14 0.17 0.23 0.32 0.44 0.53 0.56 0.57 0.64 0.70 0.72 0.71 0.71 0.71 0.72 0.74 0.73 0.69 0.67 0.64 0.65 0.66 0.62 0.59 0.56 0.54 0.51 0.48 0.44
0.21 0.12 0.09 0.10 0.12 0.13 0.13 0.11 0.10 0.07 0.04 0.05 0.05 0.06 0.08 0.08 0.09 0.09 0.11 0.17 0.18 0.20 0.27 0.38 0.46 0.54 0.60 0.63 0.68 0.71 0.68 0.64 0.66 0.69 0.72 0.68 0.62 0.57 0.53 0.52 0.51 0.48 0.46 0.46 0.47 0.48 0.47 0.46 0.43
0.17 0.12 0.09 0.11 0.12 0.14 0.15 0.11 0.09 0.05 0.03 0.05 0.07 0.07 0.07 0.08 0.09 0.10 0.12 0.18 0.22 0.23 0.30 0.42 0.51 0.57 0.65 0.65 0.67 0.70 0.68 0.65 0.68 0.67 0.64 0.62 0.57 0.52 0.46 0.44 0.43 0.39 0.35 0.33 0.33 0.33 0.34 0.35 0.35
0.20 0.21 0.15 0.09 0.10 0.12 0.19 0.18 0.07 0.04 0.04 0.07 0.09 0.08 0.07 0.08 0.10 0.11 0.12 0.14 0.20 0.26 0.34 0.44 0.55 0.67 0.72 0.70 0.71 0.74 0.73 0.70 0.69 0.67 0.64 0.62 0.58 0.54 0.50 0.46 0.42 0.39 0.37 0.38 0.37 0.36 0.34 0.31 0.29
0.30 0.35 0.26 0.10 0.08 0.12 0.27 0.23 0.06 0.04 0.08 0.10 0.10 0.09 0.09 0.08 0.10 0.13 0.15 0.16 0.20 0.29 0.39 0.47 0.60 0.75 0.81 0.79 0.79 0.78 0.77 0.79 0.75 0.71 0.69 0.64 0.59 0.55 0.53 0.51 0.47 0.44 0.44 0.44 0.44 0.40 0.37 0.33 0.30
0.41 0.37 0.22 0.09 0.08 0.15 0.27 0.20 0.05 0.05 0.09 0.10 0.11 0.11 0.10 0.10 0.11 0.14 0.17 0.19 0.21 0.29 0.39 0.50 0.60 0.75 0.87 0.91 0.88 0.86 0.81 0.83 0.83 0.77 0.71 0.68 0.61 0.56 0.54 0.52 0.52 0.54 0.56 0.53 0.49 0.45 0.40 0.37 0.33
0.38 0.25 0.16 0.09 0.08 0.14 0.19 0.14 0.06 0.06 0.10 0.10 0.11 0.12 0.12 0.14 0.15 0.17 0.20 0.23 0.25 0.29 0.38 0.51 0.63 0.80 0.92 1.08 1.10 1.07 0.99 0.90 0.87 0.84 0.73 0.67 0.65 0.62 0.59 0.57 0.57 0.61 0.63 0.59 0.55 0.48 0.43 0.40 0.39
0.25 0.25 0.18 0.07 0.06 0.15 0.15 0.10 0.08 0.08 0.10 0.11 0.11 0.14 0.15 0.16 0.19 0.21 0.26 0.32 0.35 0.37 0.42 0.51 0.65 0.81 0.98 1.11 1.18 1.14 1.09 0.94 0.88 0.87 0.82 0.72 0.68 0.70 0.68 0.63 0.64 0.62 0.64 0.61 0.57 0.55 0.53 0.47 0.45
0.28 0.32 0.23 0.13 0.08 0.17 0.17 0.10 0.07 0.08 0.11 0.13 0.13 0.16 0.18 0.16 0.18 0.19 0.24 0.35 0.41 0.43 0.46 0.50 0.61 0.73 0.91 1.04 1.09 1.15 1.09 1.01 0.91 0.88 0.86 0.79 0.70 0.73 0.79 0.73 0.67 0.66 0.63 0.65 0.65 0.62 0.61 0.59 0.53
0.32 0.29 0.23 0.19 0.16 0.20 0.24 0.17 0.06 0.05 0.07 0.10 0.11 0.13 0.16 0.17 0.18 0.19 0.23 0.32 0.41 0.44 0.49 0.53 0.58 0.65 0.77 1.02 1.24 1.36 1.40 1.28 1.12 1.00 0.92 0.81 0.74 0.68 0.76 0.80 0.74 0.70 0.67 0.64 0.63 0.62 0.60 0.61 0.54
0.35 0.19 0.20 0.24 0.37 0.38 0.33 0.35 0.08 0.04 0.05 0.07 0.09 0.10 0.11 0.14 0.15 0.16 0.20 0.28 0.36 0.43 0.53 0.62 0.61 0.67 0.77 0.94 1.25 1.41 1.46 1.34 1.08 0.92 0.89 0.86 0.80 0.73 0.70 0.77 0.79 0.77 0.75 0.71 0.65 0.63 0.61 0.65 0.65
0.26 0.19 0.23 0.28 0.45 0.54 0.38 0.42 0.14 0.06 0.07 0.06 0.06 0.08 0.09 0.12 0.14 0.13 0.16 0.21 0.31 0.44 0.55 0.67 0.72 0.77 0.86 0.93 1.12 1.35 1.46 1.39 1.25 1.10 0.99 0.92 0.90 0.86 0.77 0.74 0.78 0.80 0.79 0.78 0.72 0.67 0.67 0.68 0.70
0.23 0.29 0.37 0.45 0.76 1.00 0.37 0.35 0.20 0.11 0.13 0.10 0.08 0.09 0.10 0.12 0.15 0.13 0.13 0.17 0.27 0.42 0.50 0.64 0.77 0.81 0.93 0.98 1.09 1.22 1.39 1.49 1.46 1.35 1.22 1.07 1.01 0.96 0.93 0.80 0.77 0.79 0.79 0.80 0.77 0.71 0.68 0.69 0.68
0.42 0.75 1.15 1.24 1.35 0.87 0.18 0.24 0.22 0.12 0.09 0.12 0.14 0.12 0.12 0.12 0.14 0.13 0.12 0.14 0.21 0.39 0.49 0.60 0.76 0.79 0.88 0.95 1.04 1.16 1.30 1.45 1.56 1.47 1.31 1.20 1.16 1.07 0.96 0.92 0.83 0.80 0.79 0.79 0.79 0.78 0.71 0.67 0.71
0.46 0.71 1.01 0.93 0.60 0.22 0.11 0.19 0.17 0.10 0.06 0.06 0.08 0.11 0.12 0.12 0.12 0.14 0.14 0.14 0.18 0.27 0.40 0.51 0.70 0.74 0.78 0.86 0.95 1.09 1.26 1.44 1.53 1.56 1.39 1.27 1.19 1.08 0.96 0.93 0.87 0.82 0.83 0.85 0.83 0.80 0.76 0.72 0.68
0.43 0.47 0.45 0.66 0.49 0.29 0.20 0.15 0.11 0.06 0.04 0.03 0.04 0.06 0.09 0.12 0.11 0.12 0.15 0.15 0.18 0.24 0.33 0.44 0.66 0.73 0.70 0.77 0.86 0.98 1.13 1.34 1.44 1.48 1.46 1.34 1.26 1.19 1.12 1.03 0.98 0.91 0.89 0.87 0.87 0.84 0.78 0.77 0.76
0.37 0.46 0.51 0.85 0.84 0.51 0.29 0.17 0.17 0.12 0.08 0.06 0.06 0.07 0.08 0.10 0.10 0.10 0.13 0.14 0.17 0.21 0.30 0.41 0.57 0.73 0.73 0.74 0.81 0.90 0.98 1.15 1.30 1.42 1.51 1.40 1.34 1.30 1.31 1.25 1.18 1.08 1.03 1.00 0.96 0.92 0.83 0.81 0.80
0.43 0.56 0.73 0.78 0.62 0.52 0.40 0.28 0.25 0.18 0.14 0.11 0.09 0.08 0.08 0.09 0.10 0.10 0.12 0.12 0.15 0.18 0.25 0.38 0.50 0.65 0.78 0.81 0.79 0.88 0.96 1.08 1.18 1.23 1.31 1.40 1.40 1.36 1.41 1.45 1.39 1.31 1.21 1.17 1.15 1.08 1.01 0.94 0.86
0.46 0.54 0.64 0.80 0.62 0.36 0.37 0.32 0.22 0.15 0.13 0.12 0.10 0.08 0.07 0.08 0.09 0.10 0.11 0.12 0.13 0.16 0.21 0.31 0.46 0.61 0.72 0.81 0.85 0.87 0.95 1.08 1.14 1.11 1.11 1.18 1.29 1.32 1.37 1.54 1.56 1.50 1.39 1.30 1.31 1.31 1.21 1.15 1.05

GEFSSGP_prec_meanprecacc_204.txt.gz
Total_Precipitation_Accumulation
0.05 0.05 0.05 0.06 0.05 0.03 0.00 0.00 0.00 0.00 0.00 0.00 0.00 0.00 0.00 0.00 0.00 0.00 0.00 0.00 0.02 0.03 0.05 0.15 0.21 0.25 0.32 0.35 0.33 0.29 0.27 0.32 0.37 0.40 0.43 0.49 0.49 0.46 0.46 0.45 0.44 0.46 0.52 0.54 0.54 0.53 0.52 0.46 0.42
0.05 0.08 0.09 0.09 0.05 0.01 0.00 0.00 0.00 0.00 0.00 0.00 0.00 0.00 0.00 0.00 0.00 0.00 0.00 0.00 0.01 0.01 0.03 0.09 0.19 0.26 0.31 0.33 0.32 0.30 0.29 0.30 0.35 0.39 0.43 0.46 0.47 0.47 0.46 0.44 0.44 0.49 0.57 0.62 0.62 0.60 0.57 0.51 0.45
0.09 0.12 0.11 0.09 0.04 0.00 0.00 0.00 0.00 0.00 0.00 0.00 0.00 0.00 0.00 0.00 0.00 0.00 0.00 0.00 0.00 0.01 0.03 0.10 0.20 0.27 0.32 0.35 0.34 0.32 0.32 0.33 0.35 0.39 0.44 0.51 0.49 0.47 0.44 0.41 0.41 0.47 0.58 0.64 0.64 0.59 0.55 0.54 0.51
0.11 0.16 0.15 0.09 0.02 0.00 0.00 0.00 0.00 0.00 0.00 0.00 0.00 0.00 0.00 0.00 0.00 0.00 0.00 0.00 0.01 0.02 0.03 0.11 0.21 0.29 0.33 0.36 0.37 0.35 0.35 0.38 0.39 0.41 0.46 0.53 0.54 0.52 0.47 0.42 0.39 0.41 0.48 0.56 0.57 0.54 0.54 0.55 0.49
0.16 0.17 0.15 0.08 0.01 0.00 0.00 0.00 0.00 0.00 0.00 0.00 0.00 0.00 0.00 0.00 0.00 0.00 0.00 0.00 0.01 0.02 0.04 0.13 0.24 0.32 0.37 0.38 0.38 0.40 0.40 0.43 0.45 0.47 0.52 0.56 0.56 0.55 0.52 0.49 0.43 0.40 0.40 0.45 0.49 0.50 0.51 0.52 0.48
0.22 0.21 0.14 0.05 0.01 0.00 0.00 0.00 0.00 0.00 0.00 0.00 0.00 0.00 0.00 0.00 0.00 0.00 0.00 0.01 0.01 0.02 0.06 0.15 0.29 0.36 0.41 0.43 0.43 0.45 0.47 0.49 0.51 0.53 0.57 0.59 0.56 0.56 0.54 0.52 0.46 0.41 0.38 0.38 0.40 0.43 0.46 0.47 0.46
0.22 0.22 0.12 0.05 0.02 0.01 0.01 0.00 0.01 0.00 0.00 0.00 0.00 0.01 0.01 0.01 0.01 0.01 0.01 0.02 0.03 0.04 0.08 0.17 0.29 0.36 0.44 0.47 0.48 0.49 0.52 0.54 0.56 0.58 0.59 0.60 0.58 0.58 0.59 0.55 0.50 0.47 0.44 0.40 0.36 0.36 0.37 0.37 0.39
0.25 0.29 0.15 0.06 0.03 0.02 0.00 0.00 0.01 0.01 0.01 0.00 0.01 0.01 0.01 0.01 0.01 0.02 0.03 0.04 0.05 0.08 0.12 0.19 0.29 0.36 0.42 0.48 0.53 0.53 0.55 0.58 0.62 0.64 0.62 0.58 0.60 0.61 0.60 0.54 0.48 0.49 0.49 0.44 0.40 0.37 0.34 0.32 0.31
0.35 0.40 0.19 0.06 0.04 0.03 0.02 0.02 0.01 0.01 0.02 0.01 0.01 0.01 0.01 0.01 0.02 0.03 0.06 0.08 0.11 0.14 0.18 0.26 0.34 0.40 0.46 0.51 0.56 0.62 0.66 0.72 0.74 0.72 0.68 0.68 0.66 0.62 0.54 0.47 0.46 0.50 0.51 0.46 0.43 0.42 0.38 0.34 0.29
0.38 0.34 0.15 0.04 0.03 0.05 0.05 0.05 0.04 0.04 0.03 0.02 0.02 0.02 0.02 0.02 0.04 0.05 0.07 0.09 0.12 0.16 0.21 0.28 0.39 0.45 0.53 0.57 0.65 0.76 0.77 0.79 0.78 0.69 0.66 0.67 0.62 0.59 0.54 0.50 0.49 0.53 0.53 0.50 0.48 0.47 0.45 0.40 0.30
0.30 0.23 0.10 0.06 0.04 0.07 0.07 0.07 0.08 0.09 0.07 0.03 0.04 0.04 0.03 0.04 0.07 0.10 0.11 0.11 0.11 0.13 0.20 0.28 0.40 0.51 0.56 0.59 0.67 0.77 0.80 0.79 0.80 0.74 0.69 0.68 0.69 0.66 0.63 0.59 0.60 0.59 0.56 0.55 0.55 0.58 0.53 0.47 0.42
0.23 0.16 0.11 0.09 0.09 0.10 0.11 0.10 0.10 0.10 0.08 0.04 0.04 0.06 0.06 0.07 0.08 0.10 0.12 0.12 0.14 0.17 0.23 0.32 0.44 0.53 0.56 0.57 0.64 0.70 0.72 0.71 0.72 0.71 0.73 0.75 0.74 0.70 0.68 0.64 0.66 0.67 0.65 0.61 0.60 0.57 0.54 0.50 0.45
0.21 0.12 0.09 0.10 0.12 0.13 0.13 0.11 0.10 0.07 0.04 0.05 0.05 0.06 0.08 0.08 0.09 0.09 0.11 0.17 0.18 0.20 0.27 0.38 0.46 0.54 0.60 0.63 0.68 0.71 0.68 0.64 0.66 0.69 0.73 0.69 0.63 0.58 0.54 0.53 0.52 0.49 0.48 0.48 0.50 0.52 0.51 0.49 0.45
0.17 0.12 0.09 0.11 0.12 0.14 0.15 0.11 0.09 0.05 0.03 0.05 0.07 0.07 0.07 0.08 0.09 0.11 0.12 0.18 0.22 0.23 0.30 0.42 0.51 0.57 0.65 0.65 0.67 0.70 0.68 0.65 0.68 0.67 0.64 0.62 0.58 0.53 0.47 0.45 0.44 0.41 0.37 0.35 0.36 0.37 0.38 0.39 0.37
0.20 0.21 0.15 0.09 0.10 0.12 0.19 0.18 0.07 0.04 0.04 0.07 0.09 0.08 0.07 0.08 0.10 0.11 0.12 0.14 0.20 0.26 0.34 0.44 0.55 0.67 0.72 0.70 0.71 0.74 0.73 0.70 0.69 0.68 0.64 0.62 0.58 0.54 0.51 0.47 0.43 0.41 0.41 0.40 0.39 0.39 0.38 0.35 0.32
0.30 0.35 0.26 0.10 0.08 0.12 0.27 0.23 0.06 0.04 0.08 0.10 0.10 0.09 0.09 0.08 0.10 0.13 0.15 0.16 0.20 0.29 0.39 0.47 0.60 0.75 0.81 0.79 0.79 0.78 0.77 0.79 0.75 0.71 0.69 0.64 0.60 0.56 0.53 0.52 0.48 0.47 0.49 0.49 0.48 0.44 0.42 0.38 0.34
0.41 0.37 0.22 0.09 0.08 0.15 0.27 0.20 0.05 0.05 0.09 0.10 0.11 0.11 0.10 0.10 0.11 0.14 0.17 0.19 0.21 0.29 0.39 0.50 0.60 0.75 0.87 0.91 0.88 0.86 0.81 0.83 0.83 0.78 0.72 0.69 0.63 0.57 0.54 0.52 0.53 0.56 0.60 0.58 0.54 0.50 0.45 0.42 0.38
0.38 0.25 0.16 0.09 0.08 0.14 0.19 0.14 0.06 0.06 0.10 0.10 0.11 0.13 0.12 0.14 0.15 0.17 0.20 0.23 0.25 0.29 0.38 0.51 0.63 0.80 0.92 1.08 1.11 1.08 1.00 0.90 0.87 0.84 0.74 0.67 0.66 0.63 0.61 0.58 0.58 0.62 0.65 0.63 0.60 0.53 0.48 0.45 0.44
0.25 0.25 0.18 0.07 0.06 0.15 0.15 0.10 0.08 0.08 0.10 0.11 0.12 0.14 0.15 0.16 0.19 0.21 0.26 0.32 0.35 0.37 0.42 0.51 0.65 0.81 0.98 1.11 1.19 1.16 1.10 0.95 0.89 0.87 0.82 0.72 0.69 0.71 0.70 0.64 0.65 0.64 0.65 0.62 0.59 0.58 0.56 0.51 0.49
0.28 0.32 0.23 0.13 0.08 0.17 0.17 0.10 0.07 0.08 0.11 0.13 0.13 0.16 0.18 0.16 0.18 0.19 0.24 0.35 0.41 0.43 0.46 0.50 0.61 0.73 0.91 1.04 1.09 1.15 1.10 1.01 0.91 0.89 0.87 0.79 0.70 0.73 0.79 0.73 0.68 0.67 0.65 0.66 0.67 0.65 0.64 0.63 0.57
0.32 0.29 0.23 0.19 0.16 0.20 0.24 0.17 0.06 0.05 0.07 0.10 0.11 0.13 0.16 0.17 0.18 0.19 0.23 0.32 0.41 0.44 0.49 0.53 0.58 0.65 0.77 1.02 1.24 1.36 1.40 1.29 1.12 1.00 0.92 0.82 0.74 0.68 0.76 0.80 0.74 0.70 0.68 0.65 0.64 0.63 0.62 0.64 0.58
0.35 0.19 0.20 0.24 0.37 0.38 0.33 0.35 0.08 0.04 0.05 0.07 0.09 0.10 0.11 0.14 0.15 0.16 0.20 0.28 0.36 0.43 0.53 0.62 0.61 0.67 0.77 0.94 1.25 1.41 1.46 1.34 1.08 0.93 0.90 0.87 0.81 0.73 0.70 0.78 0.80 0.78 0.75 0.71 0.66 0.64 0.63 0.68 0.69
0.27 0.19 0.23 0.28 0.45 0.55 0.38 0.43 0.14 0.06 0.07 0.06 0.06 0.08 0.09 0.12 0.14 0.13 0.16 0.21 0.31 0.44 0.55 0.67 0.72 0.77 0.86 0.93 1.12 1.35 1.46 1.39 1.25 1.11 0.99 0.93 0.91 0.86 0.77 0.74 0.79 0.80 0.80 0.79 0.73 0.69 0.70 0.72 0.74
0.23 0.29 0.37 0.45 0.76 1.00 0.37 0.35 0.20 0.11 0.13 0.10 0.08 0.09 0.10 0.13 0.15 0.13 0.13 0.17 0.27 0.42 0.50 0.64 0.77 0.81 0.93 0.98 1.09 1.22 1.39 1.49 1.46 1.35 1.22 1.07 1.01 0.96 0.93 0.80 0.78 0.79 0.80 0.81 0.79 0.73 0.71 0.73 0.73
0.42 0.76 1.15 1.25 1.35 0.87 0.18 0.24 0.22 0.12 0.09 0.12 0.14 0.12 0.12 0.12 0.14 0.13 0.12 0.14 0.21 0.39 0.49 0.60 0.76 0.79 0.88 0.95 1.04 1.16 1.30 1.45 1.56 1.47 1.31 1.20 1.16 1.07 0.97 0.92 0.83 0.81 0.80 0.80 0.81 0.81 0.75 0.71 0.75
0.46 0.71 1.02 0.94 0.60 0.22 0.11 0.19 0.17 0.10 0.06 0.06 0.08 0.11 0.12 0.12 0.12 0.14 0.14 0.14 0.18 0.27 0.40 0.51 0.70 0.74 0.78 0.86 0.95 1.09 1.26 1.44 1.53 1.56 1.39 1.28 1.20 1.09 0.97 0.93 0.87 0.82 0.83 0.86 0.85 0.82 0.80 0.75 0.73
0.44 0.48 0.46 0.67 0.49 0.29 0.20 0.16 0.12 0.07 0.04 0.03 0.04 0.06 0.09 0.12 0.11 0.12 0.15 0.15 0.18 0.24 0.33 0.44 0.66 0.73 0.70 0.77 0.86 0.98 1.13 1.34 1.44 1.48 1.46 1.34 1.27 1.20 1.12 1.04 0.99 0.92 0.90 0.89 0.89 0.86 0.81 0.81 0.81
0.37 0.47 0.51 0.85 0.84 0.52 0.29 0.18 0.18 0.12 0.08 0.06 0.06 0.07 0.08 0.10 0.10 0.10 0.13 0.14 0.17 0.21 0.30 0.41 0.57 0.73 0.73 0.74 0.81 0.90 0.98 1.15 1.30 1.42 1.51 1.40 1.34 1.30 1.31 1.25 1.19 1.09 1.05 1.02 0.99 0.95 0.86 0.84 0.84
0.44 0.56 0.74 0.78 0.63 0.53 0.40 0.29 0.25 0.18 0.14 0.11 0.09 0.08 0.08 0.09 0.10 0.10 0.12 0.12 0.15 0.18 0.25 0.38 0.50 0.65 0.78 0.81 0.79 0.88 0.96 1.09 1.18 1.23 1.31 1.40 1.41 1.36 1.42 1.46 1.40 1.32 1.22 1.18 1.17 1.11 1.03 0.98 0.89
0.47 0.55 0.65 0.81 0.63 0.36 0.37 0.32 0.22 0.15 0.13 0.12 0.10 0.08 0.07 0.08 0.09 0.10 0.11 0.12 0.13 0.16 0.21 0.31 0.46 0.61 0.72 0.81 0.85 0.87 0.95 1.09 1.15 1.12 1.11 1.18 1.30 1.33 1.38 1.56 1.58 1.51 1.41 1.32 1.33 1.33 1.24 1.18 1.09

GEFSSGP_prec_meanprecacc_210.txt.gz
Total_Precipitation_Accumulation
0.05 0.05 0.05 0.06 0.05 0.03 0.00 0.00 0.00 0.00 0.00 0.00 0.00 0.00 0.00 0.00 0.00 0.00 0.00 0.00 0.02 0.03 0.05 0.15 0.22 0.26 0.32 0.35 0.33 0.30 0.27 0.33 0.38 0.41 0.46 0.53 0.53 0.49 0.49 0.47 0.45 0.47 0.54 0.56 0.56 0.56 0.55 0.49 0.46
0.05 0.08 0.09 0.09 0.05 0.01 0.00 0.00 0.00 0.00 0.00 0.00 0.00 0.00 0.00 0.00 0.00 0.00 0.00 0.00 0.01 0.01 0.03 0.09 0.19 0.26 0.31 0.33 0.32 0.30 0.29 0.31 0.35 0.40 0.44 0.48 0.50 0.51 0.50 0.46 0.45 0.49 0.58 0.63 0.64 0.62 0.59 0.54 0.49
0.09 0.12 0.11 0.09 0.04 0.00 0.00 0.00 0.00 0.00 0.00 0.00 0.00 0.00 0.00 0.00 0.00 0.00 0.00 0.00 0.00 0.01 0.03 0.10 0.20 0.27 0.32 0.35 0.34 0.33 0.32 0.33 0.36 0.39 0.45 0.52 0.51 0.50 0.47 0.43 0.43 0.48 0.58 0.65 0.66 0.60 0.57 0.55 0.53
0.11 0.16 0.15 0.09 0.02 0.00 0.00 0.00 0.00 0.00 0.00 0.00 0.00 0.00 0.00 0.00 0.00 0.00 0.00 0.00 0.01 0.02 0.03 0.11 0.22 0.29 0.34 0.37 0.37 0.36 0.36 0.38 0.40 0.43 0.48 0.55 0.56 0.55 0.50 0.44 0.41 0.43 0.49 0.57 0.58 0.55 0.55 0.56 0.50
0.16 0.17 0.15 0.08 0.01 0.00 0.00 0.00 0.00 0.00 0.00 0.00 0.00 0.00 0.00 0.00 0.00 0.00 0.00 0.00 0.01 0.02 0.05 0.13 0.25 0.32 0.37 0.39 0.39 0.40 0.41 0.43 0.46 0.48 0.53 0.58 0.58 0.57 0.55 0.52 0.47 0.43 0.43 0.47 0.50 0.51 0.52 0.54 0.49
0.22 0.21 0.14 0.05 0.01 0.00 0.00 0.00 0.00 0.00 0.00 0.00 0.00 0.00 0.00 0.00 0.00 0.00 0.00 0.01 0.01 0.02 0.06 0.15 0.29 0.36 0.41 0.44 0.43 0.45 0.48 0.50 0.52 0.54 0.59 0.59 0.57 0.57 0.56 0.55 0.49 0.45 0.41 0.40 0.42 0.44 0.47 0.48 0.47
0.22 0.22 0.12 0.05 0.02 0.01 0.01 0.00 0.01 0.00 0.00 0.00 0.00 0.01 0.01 0.01 0.01 0.01 0.01 0.02 0.03 0.04 0.08 0.17 0.29 0.37 0.44 0.48 0.48 0.49 0.52 0.54 0.57 0.59 0.60 0.61 0.58 0.59 0.61 0.57 0.51 0.48 0.47 0.42 0.37 0.37 0.38 0.38 0.40
0.25 0.29 0.15 0.06 0.03 0.02 0.00 0.00 0.01 0.01 0.01 0.00 0.01 0.01 0.01 0.01 0.01 0.02 0.03 0.04 0.05 0.08 0.12 0.19 0.29 0.36 0.43 0.49 0.53 0.53 0.56 0.59 0.62 0.65 0.64 0.60 0.61 0.62 0.60 0.55 0.49 0.50 0.50 0.45 0.41 0.38 0.35 0.33 0.32
0.35 0.40 0.19 0.06 0.04 0.03 0.02 0.02 0.01 0.01 0.02 0.01 0.01 0.01 0.01 0.01 0.02 0.03 0.06 0.08 0.12 0.14 0.18 0.26 0.35 0.41 0.46 0.52 0.56 0.62 0.66 0.72 0.74 0.72 0.69 0.69 0.67 0.63 0.55 0.47 0.47 0.50 0.52 0.46 0.44 0.42 0.39 0.35 0.30
0.38 0.34 0.15 0.04 0.03 0.05 0.05 0.05 0.04 0.04 0.03 0.02 0.02 0.02 0.02 0.02 0.04 0.05 0.07 0.10 0.12 0.16 0.21 0.29 0.39 0.45 0.53 0.57 0.65 0.76 0.77 0.79 0.78 0.69 0.66 0.68 0.63 0.60 0.55 0.50 0.49 0.53 0.53 0.51 0.49 0.48 0.46 0.41 0.32
0.30 0.23 0.10 0.06 0.04 0.07 0.07 0.07 0.08 0.09 0.07 0.03 0.04 0.04 0.03 0.04 0.07 0.10 0.11 0.11 0.11 0.13 0.20 0.28 0.41 0.51 0.56 0.59 0.67 0.77 0.80 0.79 0.80 0.74 0.69 0.68 0.70 0.67 0.64 0.59 0.61 0.60 0.56 0.56 0.56 0.59 0.54 0.49 0.44
0.23 0.16 0.11 0.09 0.09 0.10 0.11 0.10 0.10 0.10 0.08 0.04 0.04 0.06 0.06 0.07 0.08 0.10 0.12 0.12 0.14 0.17 0.23 0.32 0.44 0.53 0.56 0.57 0.64 0.70 0.72 0.71 0.72 0.72 0.73 0.75 0.74 0.70 0.68 0.65 0.66 0.68 0.65 0.62 0.60 0.58 0.55 0.51 0.47
0.21 0.12 0.09 0.10 0.12 0.13 0.13 0.11 0.10 0.07 0.04 0.05 0.05 0.06 0.08 0.08 0.09 0.09 0.12 0.17 0.18 0.20 0.27 0.38 0.46 0.54 0.60 0.63 0.68 0.71 0.68 0.64 0.66 0.70 0.73 0.69 0.63 0.58 0.54 0.54 0.53 0.50 0.49 0.49 0.51 0.53 0.52 0.50 0.46
0.17 0.12 0.09 0.11 0.12 0.14 0.15 0.11 0.09 0.05 0.03 0.05 0.07 0.07 0.07 0.08 0.09 0.11 0.13 0.18 0.23 0.23 0.30 0.42 0.51 0.57 0.65 0.65 0.67 0.70 0.68 0.65 0.68 0.67 0.65 0.62 0.58 0.53 0.47 0.45 0.45 0.42 0.38 0.36 0.37 0.38 0.39 0.40 0.39
0.20 0.21 0.15 0.09 0.10 0.12 0.19 0.18 0.07 0.04 0.04 0.07 0.09 0.08 0.07 0.08 0.10 0.11 0.12 0.14 0.20 0.26 0.34 0.44 0.55 0.67 0.72 0.70 0.71 0.74 0.73 0.70 0.69 0.68 0.64 0.63 0.58 0.55 0.52 0.47 0.44 0.42 0.42 0.42 0.40 0.40 0.39 0.36 0.33
0.30 0.35 0.26 0.10 0.08 0.12 0.27 0.23 0.06 0.04 0.08 0.10 0.10 0.09 0.09 0.08 0.10 0.13 0.15 0.16 0.20 0.29 0.39 0.48 0.60 0.75 0.81 0.79 0.79 0.78 0.77 0.79 0.75 0.71 0.69 0.64 0.60 0.56 0.54 0.52 0.48 0.47 0.50 0.51 0.49 0.44 0.43 0.39 0.35
0.41 0.37 0.22 0.09 0.08 0.15 0.27 0.20 0.05 0.05 0.09 0.10 0.11 0.11 0.10 0.10 0.11 0.14 0.17 0.19 0.21 0.29 0.40 0.51 0.60 0.75 0.87 0.92 0.88 0.86 0.81 0.83 0.83 0.78 0.72 0.69 0.63 0.57 0.54 0.53 0.54 0.56 0.60 0.59 0.56 0.51 0.46 0.44 0.40
0.38 0.25 0.16 0.09 0.08 0.14 0.19 0.14 0.06 0.06 0.10 0.10 0.11 0.13 0.12 0.14 0.15 0.17 0.20 0.23 0.25 0.29 0.39 0.51 0.63 0.80 0.92 1.08 1.11 1.09 1.01 0.90 0.88 0.84 0.74 0.67 0.67 0.63 0.61 0.58 0.58 0.62 0.65 0.64 0.60 0.54 0.49 0.46 0.45
0.25 0.25 0.18 0.07 0.06 0.15 0.15 0.10 0.08 0.08 0.10 0.11 0.12 0.14 0.15 0.16 0.19 0.21 0.26 0.32 0.35 0.37 0.43 0.51 0.65 0.82 0.98 1.11 1.19 1.16 1.10 0.95 0.89 0.87 0.82 0.72 0.69 0.71 0.71 0.65 0.66 0.64 0.66 0.63 0.60 0.59 0.57 0.52 0.50
0.28 0.32 0.23 0.13 0.08 0.17 0.17 0.10 0.07 0.08 0.11 0.13 0.13 0.16 0.18 0.16 0.18 0.19 0.24 0.35 0.41 0.43 0.46 0.50 0.62 0.73 0.91 1.04 1.09 1.15 1.10 1.02 0.92 0.89 0.87 0.79 0.70 0.73 0.80 0.74 0.69 0.67 0.66 0.68 0.68 0.66 0.65 0.64 0.58
0.32 0.29 0.23 0.19 0.16 0.20 0.24 0.17 0.06 0.05 0.07 0.10 0.11 0.13 0.16 0.18 0.18 0.19 0.23 0.32 0.41 0.45 0.49 0.54 0.58 0.66 0.77 1.02 1.24 1.36 1.41 1.29 1.12 1.01 0.92 0.82 0.74 0.68 0.76 0.80 0.75 0.70 0.68 0.66 0.65 0.64 0.63 0.66 0.60
0.35 0.19 0.20 0.24 0.37 0.38 0.33 0.35 0.08 0.04 0.05 0.07 0.09 0.10 0.11 0.15 0.15 0.16 0.20 0.28 0.36 0.43 0.54 0.62 0.61 0.68 0.77 0.94 1.25 1.41 1.46 1.34 1.08 0.93 0.90 0.87 0.81 0.73 0.70 0.78 0.80 0.78 0.76 0.71 0.66 0.64 0.63 0.69 0.71
0.27 0.19 0.23 0.28 0.46 0.55 0.38 0.43 0.14 0.06 0.07 0.06 0.06 0.08 0.09 0.12 0.14 0.14 0.17 0.22 0.31 0.44 0.56 0.67 0.72 0.77 0.86 0.93 1.12 1.35 1.46 1.39 1.25 1.11 0.99 0.93 0.91 0.86 0.78 0.75 0.79 0.80 0.80 0.79 0.74 0.69 0.70 0.72 0.75
0.23 0.29 0.37 0.45 0.76 1.00 0.37 0.35 0.20 0.12 0.13 0.10 0.08 0.09 0.10 0.13 0.15 0.13 0.14 0.17 0.27 0.42 0.51 0.65 0.77 0.81 0.93 0.98 1.09 1.22 1.39 1.49 1.46 1.35 1.22 1.07 1.01 0.96 0.93 0.81 0.78 0.80 0.81 0.82 0.79 0.73 0.72 0.74 0.74
0.42 0.76 1.16 1.25 1.35 0.87 0.18 0.25 0.23 0.12 0.09 0.12 0.14 0.12 0.12 0.12 0.14 0.14 0.13 0.14 0.22 0.39 0.50 0.61 0.76 0.79 0.88 0.95 1.04 1.16 1.30 1.45 1.56 1.47 1.31 1.20 1.16 1.07 0.97 0.92 0.83 0.81 0.80 0.80 0.81 0.81 0.75 0.72 0.76
0.46 0.72 1.02 0.94 0.60 0.23 0.11 0.19 0.18 0.11 0.06 0.06 0.08 0.11 0.12 0.12 0.12 0.14 0.14 0.14 0.18 0.28 0.40 0.52 0.70 0.74 0.78 0.86 0.95 1.09 1.26 1.44 1.53 1.56 1.40 1.28 1.20 1.09 0.97 0.93 0.87 0.82 0.83 0.86 0.85 0.83 0.80 0.76 0.73
0.44 0.48 0.46 0.67 0.49 0.29 0.20 0.17 0.13 0.07 0.04 0.04 0.05 0.06 0.09 0.12 0.11 0.12 0.15 0.15 0.19 0.24 0.33 0.44 0.66 0.73 0.70 0.77 0.86 0.98 1.13 1.34 1.44 1.48 1.47 1.34 1.27 1.20 1.12 1.04 0.99 0.92 0.90 0.89 0.89 0.87 0.81 0.81 0.81
0.38 0.47 0.51 0.85 0.85 0.52 0.29 0.18 0.19 0.13 0.08 0.06 0.06 0.07 0.09 0.10 0.10 0.10 0.13 0.14 0.17 0.22 0.30 0.41 0.57 0.73 0.73 0.74 0.81 0.90 0.98 1.15 1.30 1.42 1.52 1.40 1.34 1.30 1.31 1.25 1.19 1.09 1.05 1.02 0.99 0.95 0.86 0.85 0.85
0.45 0.57 0.74 0.79 0.63 0.53 0.40 0.29 0.25 0.19 0.14 0.11 0.09 0.08 0.08 0.09 0.10 0.10 0.12 0.12 0.15 0.18 0.25 0.38 0.50 0.66 0.78 0.81 0.79 0.88 0.96 1.09 1.19 1.23 1.31 1.40 1.41 1.36 1.42 1.46 1.40 1.32 1.22 1.18 1.17 1.11 1.04 0.99 0.90
0.48 0.56 0.66 0.82 0.64 0.37 0.37 0.32 0.22 0.15 0.13 0.12 0.10 0.08 0.07 0.08 0.09 0.10 0.11 0.12 0.13 0.16 0.21 0.31 0.46 0.62 0.72 0.81 0.86 0.88 0.96 1.09 1.15 1.12 1.11 1.18 1.30 1.33 1.38 1.56 1.58 1.51 1.41 1.32 1.33 1.34 1.25 1.19 1.10

GEFSSGP_prec_meanprecacc_216.txt.gz
Total_Precipitation_Accumulation
0.05 0.05 0.05 0.06 0.05 0.03 0.00 0.00 0.00 0.00 0.00 0.00 0.00 0.00 0.00 0.00 0.00 0.00 0.00 0.00 0.02 0.03 0.05 0.15 0.22 0.26 0.32 0.35 0.34 0.30 0.28 0.34 0.39 0.42 0.47 0.54 0.54 0.51 0.51 0.49 0.47 0.48 0.55 0.58 0.59 0.58 0.57 0.51 0.49
0.05 0.08 0.09 0.09 0.05 0.01 0.00 0.00 0.00 0.00 0.00 0.00 0.00 0.00 0.00 0.00 0.00 0.00 0.00 0.00 0.01 0.01 0.03 0.09 0.19 0.26 0.32 0.34 0.32 0.31 0.30 0.31 0.36 0.41 0.45 0.49 0.51 0.52 0.51 0.47 0.46 0.51 0.59 0.65 0.65 0.63 0.61 0.55 0.50
0.09 0.12 0.11 0.09 0.04 0.00 0.00 0.00 0.00 0.00 0.00 0.00 0.00 0.00 0.00 0.00 0.00 0.00 0.00 0.00 0.00 0.01 0.03 0.10 0.21 0.27 0.32 0.36 0.35 0.33 0.32 0.34 0.36 0.40 0.45 0.53 0.52 0.51 0.48 0.44 0.44 0.49 0.59 0.66 0.66 0.61 0.58 0.56 0.54
0.11 0.16 0.15 0.09 0.02 0.00 0.00 0.00 0.00 0.00 0.00 0.00 0.00 0.00 0.00 0.00 0.00 0.00 0.00 0.00 0.01 0.02 0.03 0.11 0.22 0.29 0.34 0.37 0.37 0.36 0.36 0.39 0.40 0.43 0.48 0.55 0.57 0.56 0.51 0.46 0.42 0.43 0.50 0.58 0.59 0.55 0.56 0.56 0.51
0.16 0.17 0.15 0.08 0.01 0.00 0.00 0.00 0.00 0.00 0.00 0.00 0.00 0.00 0.00 0.00 0.00 0.00 0.00 0.00 0.01 0.02 0.05 0.13 0.25 0.33 0.37 0.39 0.39 0.41 0.41 0.44 0.46 0.49 0.53 0.58 0.58 0.58 0.56 0.54 0.49 0.45 0.44 0.48 0.51 0.52 0.53 0.54 0.50
0.22 0.21 0.14 0.05 0.01 0.00 0.00 0.00 0.00 0.00 0.00 0.00 0.00 0.00 0.00 0.00 0.00 0.00 0.00 0.01 0.01 0.03 0.06 0.15 0.30 0.37 0.42 0.44 0.44 0.45 0.48 0.51 0.53 0.55 0.59 0.60 0.58 0.57 0.57 0.55 0.50 0.46 0.42 0.41 0.43 0.45 0.48 0.48 0.48
0.22 0.22 0.12 0.05 0.02 0.01 0.01 0.00 0.01 0.00 0.00 0.00 0.00 0.01 0.01 0.01 0.01 0.01 0.01 0.02 0.03 0.04 0.08 0.17 0.29 0.37 0.45 0.48 0.48 0.50 0.53 0.55 0.58 0.60 0.62 0.62 0.59 0.59 0.61 0.57 0.52 0.49 0.47 0.42 0.37 0.38 0.39 0.38 0.40
0.25 0.29 0.15 0.06 0.03 0.02 0.00 0.00 0.01 0.01 0.01 0.00 0.01 0.01 0.01 0.01 0.01 0.02 0.03 0.04 0.06 0.08 0.12 0.20 0.30 0.37 0.44 0.49 0.53 0.53 0.56 0.59 0.63 0.65 0.64 0.61 0.61 0.62 0.61 0.55 0.49 0.50 0.50 0.45 0.41 0.38 0.36 0.33 0.32
0.35 0.40 0.19 0.06 0.04 0.03 0.02 0.02 0.01 0.01 0.02 0.01 0.01 0.01 0.01 0.01 0.02 0.03 0.06 0.09 0.12 0.15 0.18 0.26 0.35 0.42 0.47 0.53 0.57 0.62 0.66 0.72 0.74 0.72 0.69 0.70 0.67 0.63 0.55 0.47 0.47 0.50 0.52 0.46 0.44 0.42 0.39 0.36 0.30
0.38 0.34 0.15 0.04 0.03 0.05 0.05 0.05 0.04 0.04 0.03 0.02 0.02 0.02 0.02 0.02 0.04 0.05 0.07 0.10 0.12 0.16 0.21 0.29 0.39 0.46 0.54 0.58 0.66 0.77 0.78 0.80 0.79 0.69 0.66 0.68 0.63 0.60 0.55 0.50 0.49 0.53 0.53 0.51 0.49 0.48 0.46 0.42 0.33
0.30 0.23 0.10 0.06 0.04 0.07 0.07 0.07 0.08 0.09 0.07 0.03 0.04 0.04 0.03 0.04 0.07 0.10 0.11 0.11 0.11 0.13 0.20 0.28 0.41 0.52 0.57 0.60 0.68 0.78 0.81 0.80 0.80 0.75 0.70 0.68 0.70 0.67 0.64 0.59 0.61 0.60 0.57 0.56 0.56 0.59 0.54 0.49 0.45
0.23 0.16 0.11 0.09 0.09 0.10 0.11 0.10 0.10 0.10 0.08 0.04 0.04 0.06 0.06 0.07 0.08 0.10 0.12 0.12 0.14 0.17 0.23 0.32 0.45 0.54 0.57 0.58 0.64 0.70 0.72 0.71 0.72 0.72 0.74 0.75 0.75 0.70 0.68 0.65 0.66 0.68 0.66 0.62 0.60 0.58 0.55 0.52 0.47
0.21 0.12 0.09 0.10 0.12 0.13 0.13 0.11 0.10 0.07 0.04 0.05 0.05 0.06 0.08 0.08 0.09 0.09 0.12 0.17 0.18 0.20 0.27 0.38 0.47 0.55 0.62 0.65 0.69 0.72 0.68 0.64 0.67 0.70 0.74 0.70 0.64 0.59 0.54 0.54 0.53 0.50 0.49 0.49 0.51 0.53 0.52 0.50 0.46
0.17 0.12 0.09 0.11 0.12 0.14 0.15 0.11 0.09 0.05 0.03 0.05 0.07 0.07 0.07 0.08 0.09 0.11 0.13 0.18 0.23 0.23 0.30 0.43 0.52 0.58 0.66 0.66 0.67 0.70 0.68 0.65 0.68 0.68 0.65 0.63 0.60 0.54 0.48 0.45 0.45 0.43 0.39 0.36 0.37 0.38 0.40 0.41 0.39
0.20 0.21 0.15 0.09 0.10 0.12 0.19 0.18 0.07 0.04 0.04 0.07 0.09 0.08 0.07 0.08 0.10 0.11 0.12 0.14 0.20 0.26 0.34 0.44 0.56 0.68 0.73 0.71 0.72 0.75 0.73 0.70 0.69 0.68 0.64 0.63 0.59 0.56 0.53 0.48 0.44 0.43 0.43 0.42 0.41 0.40 0.39 0.36 0.34
0.30 0.35 0.26 0.10 0.08 0.12 0.27 0.23 0.06 0.04 0.08 0.10 0.10 0.09 0.09 0.08 0.10 0.13 0.15 0.16 0.20 0.29 0.39 0.48 0.61 0.75 0.82 0.80 0.80 0.78 0.78 0.79 0.76 0.71 0.69 0.64 0.60 0.57 0.56 0.53 0.49 0.47 0.50 0.52 0.51 0.46 0.44 0.40 0.36
0.41 0.37 0.22 0.09 0.08 0.15 0.27 0.20 0.05 0.05 0.09 0.10 0.11 0.11 0.10 0.10 0.11 0.14 0.17 0.19 0.21 0.29 0.40 0.51 0.61 0.76 0.88 0.92 0.89 0.87 0.81 0.83 0.83 0.78 0.72 0.69 0.63 0.58 0.55 0.54 0.55 0.56 0.61 0.59 0.56 0.52 0.47 0.44 0.41
0.38 0.25 0.16 0.09 0.08 0.14 0.19 0.14 0.06 0.06 0.10 0.10 0.11 0.13 0.12 0.14 0.15 0.17 0.20 0.23 0.25 0.29 0.39 0.51 0.64 0.81 0.93 1.09 1.12 1.09 1.01 0.90 0.88 0.84 0.74 0.67 0.67 0.63 0.61 0.59 0.59 0.63 0.66 0.64 0.60 0.54 0.49 0.46 0.46
0.25 0.25 0.18 0.07 0.06 0.15 0.15 0.10 0.08 0.08 0.10 0.11 0.12 0.14 0.15 0.16 0.19 0.21 0.26 0.32 0.35 0.37 0.43 0.51 0.66 0.82 0.99 1.12 1.20 1.16 1.10 0.95 0.89 0.87 0.82 0.72 0.69 0.71 0.71 0.65 0.66 0.65 0.66 0.63 0.61 0.60 0.57 0.52 0.50
0.28 0.32 0.23 0.13 0.08 0.17 0.17 0.10 0.07 0.08 0.11 0.13 0.13 0.16 0.18 0.16 0.18 0.19 0.24 0.35 0.41 0.43 0.46 0.50 0.62 0.74 0.92 1.04 1.09 1.15 1.10 1.02 0.92 0.89 0.87 0.79 0.70 0.73 0.80 0.74 0.69 0.67 0.66 0.68 0.68 0.66 0.66 0.64 0.58
0.32 0.29 0.23 0.19 0.16 0.20 0.24 0.17 0.06 0.05 0.07 0.10 0.11 0.13 0.16 0.18 0.18 0.19 0.23 0.32 0.41 0.45 0.49 0.54 0.58 0.66 0.78 1.03 1.24 1.36 1.41 1.29 1.12 1.01 0.92 0.82 0.74 0.68 0.76 0.80 0.75 0.71 0.68 0.66 0.65 0.64 0.64 0.66 0.60
0.35 0.19 0.20 0.24 0.37 0.38 0.33 0.35 0.08 0.04 0.05 0.07 0.09 0.10 0.11 0.15 0.15 0.16 0.20 0.28 0.36 0.44 0.54 0.63 0.61 0.68 0.78 0.95 1.25 1.41 1.46 1.34 1.08 0.93 0.90 0.87 0.81 0.73 0.70 0.78 0.80 0.78 0.76 0.71 0.66 0.64 0.63 0.69 0.71
0.27 0.19 0.23 0.28 0.46 0.55 0.38 0.43 0.14 0.06 0.08 0.06 0.06 0.08 0.09 0.12 0.14 0.14 0.17 0.22 0.31 0.44 0.56 0.68 0.73 0.78 0.87 0.95 1.13 1.35 1.46 1.39 1.25 1.11 1.00 0.93 0.91 0.86 0.78 0.75 0.79 0.80 0.80 0.79 0.74 0.69 0.70 0.72 0.76
0.23 0.29 0.37 0.45 0.76 1.00 0.37 0.35 0.21 0.12 0.13 0.10 0.08 0.09 0.10 0.13 0.15 0.13 0.14 0.17 0.27 0.42 0.51 0.67 0.79 0.82 0.94 0.99 1.09 1.22 1.39 1.49 1.46 1.35 1.22 1.07 1.01 0.96 0.93 0.81 0.78 0.80 0.81 0.82 0.79 0.73 0.72 0.74 0.74
0.43 0.77 1.17 1.26 1.36 0.87 0.18 0.25 0.23 0.12 0.09 0.12 0.14 0.12 0.12 0.12 0.14 0.14 0.13 0.14 0.22 0.39 0.50 0.63 0.79 0.80 0.89 0.96 1.05 1.16 1.30 1.46 1.56 1.47 1.31 1.20 1.16 1.07 0.97 0.92 0.83 0.81 0.80 0.80 0.81 0.81 0.75 0.72 0.77
0.47 0.73 1.04 0.95 0.60 0.23 0.11 0.19 0.18 0.11 0.07 0.06 0.08 0.11 0.12 0.12 0.12 0.14 0.14 0.14 0.18 0.28 0.41 0.54 0.75 0.77 0.79 0.87 0.96 1.09 1.26 1.44 1.53 1.56 1.40 1.28 1.20 1.09 0.97 0.93 0.87 0.82 0.83 0.86 0.85 0.83 0.80 0.76 0.74
0.45 0.49 0.46 0.68 0.50 0.30 0.20 0.17 0.13 0.07 0.04 0.04 0.05 0.06 0.09 0.12 0.11 0.12 0.15 0.15 0.19 0.24 0.34 0.47 0.70 0.78 0.72 0.79 0.87 0.99 1.13 1.34 1.44 1.48 1.47 1.34 1.27 1.20 1.12 1.04 0.99 0.92 0.90 0.89 0.90 0.87 0.81 0.81 0.81
0.39 0.47 0.53 0.88 0.86 0.52 0.29 0.18 0.19 0.13 0.08 0.06 0.06 0.07 0.09 0.10 0.10 0.10 0.13 0.14 0.17 0.22 0.31 0.44 0.61 0.79 0.77 0.76 0.83 0.91 0.98 1.15 1.30 1.42 1.52 1.41 1.34 1.30 1.31 1.25 1.19 1.09 1.05 1.02 0.99 0.95 0.86 0.85 0.85
0.46 0.59 0.75 0.80 0.64 0.53 0.40 0.29 0.25 0.19 0.14 0.11 0.09 0.08 0.08 0.09 0.10 0.10 0.12 0.12 0.15 0.18 0.25 0.41 0.54 0.69 0.83 0.84 0.81 0.89 0.96 1.09 1.19 1.23 1.32 1.41 1.41 1.36 1.42 1.46 1.40 1.32 1.22 1.19 1.17 1.12 1.04 0.99 0.91
0.49 0.57 0.67 0.84 0.65 0.37 0.38 0.33 0.22 0.15 0.13 0.12 0.10 0.08 0.07 0.08 0.09 0.10 0.11 0.12 0.13 0.16 0.22 0.34 0.51 0.64 0.76 0.86 0.87 0.88 0.96 1.09 1.15 1.12 1.12 1.19 1.30 1.33 1.38 1.56 1.58 1.51 1.41 1.32 1.33 1.34 1.25 1.20 1.12

GEFSSGP_prec_meanprecacc_222.txt.gz
Total_Precipitation_Accumulation
0.05 0.05 0.05 0.06 0.05 0.03 0.00 0.00 0.00 0.00 0.00 0.00 0.00 0.00 0.00 0.00 0.00 0.00 0.01 0.01 0.02 0.03 0.05 0.15 0.22 0.26 0.33 0.36 0.34 0.31 0.28 0.34 0.40 0.43 0.47 0.55 0.55 0.52 0.52 0.49 0.47 0.49 0.55 0.59 0.60 0.59 0.58 0.52 0.51
0.05 0.08 0.09 0.09 0.05 0.01 0.00 0.00 0.00 0.00 0.00 0.00 0.00 0.00 0.00 0.00 0.00 0.00 0.00 0.00 0.01 0.01 0.04 0.10 0.20 0.26 0.32 0.34 0.33 0.31 0.30 0.31 0.37 0.41 0.45 0.50 0.52 0.53 0.52 0.48 0.48 0.52 0.60 0.65 0.66 0.65 0.62 0.56 0.51
0.09 0.12 0.11 0.09 0.04 0.00 0.00 0.00 0.00 0.00 0.00 0.00 0.00 0.00 0.00 0.00 0.00 0.00 0.00 0.00 0.00 0.01 0.03 0.10 0.21 0.27 0.33 0.36 0.35 0.33 0.33 0.34 0.36 0.40 0.46 0.53 0.53 0.51 0.48 0.45 0.45 0.50 0.60 0.67 0.67 0.62 0.59 0.57 0.55
0.11 0.16 0.15 0.09 0.02 0.00 0.00 0.00 0.00 0.00 0.00 0.00 0.00 0.00 0.00 0.00 0.00 0.00 0.00 0.00 0.01 0.02 0.03 0.12 0.22 0.29 0.34 0.37 0.37 0.36 0.36 0.39 0.41 0.43 0.48 0.56 0.57 0.56 0.52 0.46 0.43 0.44 0.51 0.58 0.59 0.56 0.56 0.57 0.52
0.16 0.17 0.16 0.08 0.01 0.00 0.00 0.00 0.00 0.00 0.00 0.00 0.00 0.00 0.00 0.00 0.00 0.00 0.00 0.00 0.01 0.02 0.05 0.13 0.25 0.33 0.37 0.39 0.39 0.41 0.41 0.44 0.47 0.49 0.53 0.58 0.59 0.58 0.56 0.54 0.49 0.45 0.45 0.48 0.52 0.52 0.53 0.54 0.50
0.22 0.21 0.14 0.05 0.01 0.00 0.00 0.00 0.00 0.00 0.00 0.00 0.00 0.00 0.00 0.00 0.00 0.00 0.00 0.01 0.01 0.03 0.07 0.16 0.30 0.37 0.42 0.44 0.44 0.46 0.48 0.51 0.53 0.55 0.60 0.60 0.58 0.58 0.57 0.55 0.51 0.46 0.43 0.41 0.43 0.46 0.48 0.49 0.48
0.22 0.22 0.12 0.05 0.02 0.01 0.01 0.00 0.01 0.00 0.00 0.00 0.00 0.01 0.01 0.01 0.01 0.01 0.01 0.02 0.03 0.05 0.09 0.18 0.30 0.38 0.45 0.48 0.48 0.50 0.53 0.55 0.58 0.60 0.62 0.62 0.59 0.59 0.61 0.57 0.52 0.49 0.47 0.42 0.37 0.38 0.39 0.38 0.40
0.25 0.29 0.15 0.06 0.03 0.02 0.00 0.00 0.01 0.01 0.01 0.00 0.01 0.01 0.01 0.01 0.01 0.02 0.03 0.04 0.06 0.09 0.13 0.21 0.31 0.38 0.44 0.50 0.54 0.54 0.56 0.59 0.63 0.66 0.64 0.61 0.61 0.62 0.61 0.55 0.49 0.50 0.50 0.45 0.41 0.38 0.36 0.33 0.32
0.35 0.40 0.19 0.06 0.04 0.03 0.02 0.02 0.01 0.01 0.02 0.01 0.01 0.01 0.01 0.01 0.02 0.03 0.06 0.09 0.12 0.15 0.19 0.27 0.36 0.43 0.48 0.54 0.58 0.63 0.67 0.72 0.74 0.72 0.69 0.70 0.67 0.63 0.55 0.47 0.47 0.50 0.52 0.46 0.44 0.42 0.39 0.36 0.30
0.38 0.34 0.15 0.04 0.03 0.05 0.05 0.05 0.04 0.04 0.03 0.02 0.02 0.02 0.02 0.02 0.04 0.06 0.07 0.10 0.13 0.17 0.22 0.29 0.40 0.46 0.55 0.59 0.68 0.78 0.79 0.80 0.79 0.69 0.66 0.68 0.63 0.60 0.55 0.50 0.49 0.53 0.53 0.51 0.49 0.48 0.46 0.42 0.33
0.30 0.23 0.10 0.06 0.04 0.07 0.07 0.07 0.08 0.09 0.07 0.03 0.04 0.04 0.03 0.04 0.07 0.10 0.11 0.11 0.11 0.14 0.20 0.29 0.42 0.52 0.57 0.61 0.70 0.79 0.82 0.81 0.81 0.75 0.70 0.68 0.70 0.67 0.64 0.59 0.61 0.60 0.57 0.56 0.56 0.59 0.54 0.49 0.45
0.23 0.16 0.11 0.09 0.09 0.10 0.11 0.10 0.10 0.10 0.08 0.04 0.04 0.06 0.06 0.07 0.08 0.10 0.12 0.12 0.14 0.18 0.24 0.33 0.45 0.54 0.57 0.59 0.66 0.72 0.74 0.73 0.74 0.73 0.75 0.76 0.75 0.71 0.68 0.65 0.67 0.68 0.66 0.62 0.61 0.58 0.55 0.52 0.47
0.21 0.12 0.09 0.10 0.12 0.13 0.13 0.11 0.10 0.07 0.04 0.05 0.05 0.06 0.08 0.08 0.09 0.09 0.12 0.17 0.18 0.20 0.27 0.39 0.47 0.55 0.62 0.65 0.69 0.73 0.70 0.66 0.68 0.72 0.76 0.71 0.66 0.60 0.55 0.54 0.54 0.50 0.49 0.49 0.51 0.53 0.52 0.50 0.47
0.17 0.12 0.09 0.11 0.12 0.14 0.15 0.11 0.09 0.05 0.03 0.05 0.07 0.07 0.07 0.08 0.09 0.11 0.13 0.18 0.23 0.24 0.30 0.43 0.52 0.59 0.67 0.66 0.68 0.70 0.69 0.66 0.69 0.68 0.66 0.65 0.61 0.56 0.50 0.47 0.47 0.44 0.40 0.37 0.37 0.38 0.40 0.41 0.39
0.20 0.21 0.15 0.09 0.10 0.12 0.19 0.18 0.07 0.04 0.04 0.07 0.09 0.08 0.07 0.08 0.10 0.11 0.12 0.14 0.20 0.26 0.34 0.45 0.56 0.68 0.74 0.72 0.73 0.76 0.74 0.71 0.69 0.68 0.64 0.64 0.61 0.58 0.56 0.50 0.46 0.44 0.44 0.43 0.41 0.41 0.39 0.36 0.34
0.30 0.35 0.26 0.10 0.08 0.12 0.27 0.23 0.06 0.04 0.08 0.10 0.10 0.09 0.09 0.08 0.10 0.13 0.15 0.16 0.20 0.29 0.40 0.49 0.61 0.76 0.83 0.81 0.81 0.79 0.79 0.80 0.76 0.72 0.69 0.65 0.61 0.57 0.57 0.55 0.51 0.50 0.52 0.52 0.51 0.46 0.44 0.40 0.36
0.41 0.37 0.22 0.09 0.08 0.15 0.27 0.20 0.05 0.05 0.09 0.10 0.11 0.11 0.10 0.10 0.11 0.14 0.17 0.19 0.21 0.29 0.40 0.51 0.61 0.76 0.88 0.93 0.90 0.88 0.82 0.84 0.84 0.78 0.72 0.69 0.63 0.58 0.56 0.55 0.56 0.59 0.63 0.61 0.57 0.53 0.47 0.44 0.41
0.38 0.25 0.16 0.09 0.08 0.14 0.19 0.14 0.06 0.06 0.10 0.10 0.11 0.13 0.12 0.14 0.15 0.17 0.20 0.23 0.25 0.29 0.39 0.51 0.64 0.81 0.93 1.10 1.12 1.09 1.01 0.90 0.88 0.85 0.74 0.68 0.67 0.63 0.61 0.59 0.59 0.64 0.68 0.66 0.63 0.55 0.49 0.46 0.46
0.25 0.25 0.18 0.07 0.06 0.15 0.15 0.10 0.08 0.08 0.10 0.11 0.12 0.14 0.15 0.16 0.19 0.21 0.26 0.33 0.35 0.37 0.43 0.51 0.66 0.82 0.99 1.12 1.20 1.16 1.10 0.95 0.89 0.87 0.82 0.73 0.69 0.71 0.71 0.65 0.66 0.65 0.67 0.64 0.62 0.62 0.59 0.53 0.50
0.28 0.32 0.23 0.13 0.08 0.17 0.17 0.10 0.07 0.08 0.11 0.13 0.13 0.16 0.18 0.16 0.18 0.19 0.24 0.35 0.41 0.43 0.46 0.50 0.62 0.74 0.92 1.04 1.09 1.16 1.10 1.02 0.92 0.89 0.87 0.79 0.70 0.73 0.80 0.74 0.69 0.67 0.66 0.68 0.69 0.67 0.67 0.66 0.59
0.32 0.29 0.23 0.19 0.16 0.20 0.24 0.17 0.06 0.05 0.07 0.10 0.11 0.13 0.16 0.18 0.18 0.19 0.23 0.32 0.41 0.45 0.49 0.54 0.58 0.66 0.78 1.03 1.25 1.37 1.41 1.29 1.13 1.01 0.92 0.82 0.74 0.68 0.76 0.80 0.75 0.71 0.69 0.66 0.65 0.65 0.64 0.67 0.61
0.36 0.19 0.20 0.24 0.37 0.38 0.33 0.35 0.08 0.04 0.05 0.07 0.09 0.10 0.11 0.15 0.15 0.16 0.20 0.28 0.36 0.44 0.54 0.63 0.61 0.68 0.78 0.96 1.25 1.42 1.46 1.34 1.08 0.93 0.90 0.87 0.81 0.73 0.70 0.78 0.80 0.78 0.76 0.71 0.66 0.64 0.64 0.69 0.72
0.27 0.19 0.23 0.28 0.46 0.55 0.38 0.43 0.14 0.06 0.08 0.06 0.06 0.08 0.09 0.12 0.14 0.14 0.17 0.22 0.31 0.44 0.56 0.68 0.73 0.78 0.87 0.95 1.13 1.36 1.47 1.39 1.25 1.11 1.00 0.93 0.91 0.86 0.78 0.75 0.79 0.80 0.80 0.79 0.74 0.69 0.70 0.72 0.76
0.24 0.30 0.38 0.46 0.77 1.02 0.37 0.35 0.21 0.12 0.13 0.10 0.08 0.09 0.10 0.13 0.15 0.13 0.14 0.17 0.27 0.42 0.51 0.67 0.79 0.82 0.94 0.99 1.10 1.23 1.40 1.50 1.47 1.36 1.22 1.08 1.01 0.96 0.93 0.81 0.78 0.80 0.81 0.82 0.79 0.73 0.72 0.74 0.74
0.45 0.79 1.20 1.29 1.39 0.88 0.18 0.25 0.23 0.12 0.09 0.12 0.14 0.12 0.12 0.12 0.14 0.14 0.13 0.14 0.22 0.39 0.50 0.63 0.79 0.80 0.89 0.96 1.05 1.17 1.31 1.46 1.57 1.48 1.31 1.21 1.16 1.07 0.97 0.92 0.83 0.81 0.80 0.80 0.81 0.81 0.76 0.72 0.77
0.49 0.74 1.05 0.97 0.61 0.23 0.11 0.19 0.18 0.11 0.07 0.06 0.08 0.11 0.12 0.12 0.12 0.14 0.14 0.14 0.18 0.28 0.41 0.54 0.75 0.77 0.79 0.87 0.96 1.10 1.27 1.45 1.54 1.56 1.40 1.28 1.20 1.09 0.97 0.93 0.87 0.82 0.83 0.86 0.85 0.83 0.81 0.76 0.74
0.47 0.51 0.47 0.70 0.51 0.30 0.21 0.17 0.13 0.07 0.04 0.04 0.05 0.06 0.09 0.12 0.11 0.12 0.15 0.15 0.19 0.24 0.34 0.47 0.70 0.78 0.72 0.79 0.88 1.00 1.15 1.36 1.45 1.48 1.47 1.35 1.27 1.20 1.12 1.04 0.99 0.92 0.90 0.89 0.90 0.87 0.82 0.81 0.82
0.40 0.49 0.54 0.90 0.88 0.53 0.30 0.18 0.19 0.13 0.08 0.06 0.06 0.07 0.09 0.10 0.10 0.10 0.13 0.14 0.17 0.22 0.31 0.44 0.61 0.79 0.77 0.77 0.83 0.92 1.01 1.17 1.32 1.43 1.52 1.41 1.34 1.30 1.31 1.25 1.19 1.09 1.05 1.02 0.99 0.95 0.86 0.85 0.85
0.47 0.61 0.78 0.82 0.65 0.54 0.41 0.29 0.25 0.19 0.14 0.11 0.09 0.08 0.08 0.09 0.10 0.10 0.12 0.12 0.15 0.18 0.25 0.41 0.55 0.69 0.83 0.85 0.83 0.91 0.99 1.12 1.21 1.25 1.33 1.41 1.41 1.36 1.42 1.46 1.40 1.32 1.22 1.19 1.17 1.12 1.04 0.99 0.91
0.51 0.59 0.69 0.86 0.66 0.37 0.38 0.33 0.22 0.15 0.13 0.12 0.10 0.08 0.07 0.08 0.09 0.10 0.11 0.12 0.13 0.16 0.22 0.34 0.51 0.64 0.76 0.86 0.89 0.91 0.99 1.12 1.18 1.14 1.13 1.20 1.31 1.34 1.39 1.56 1.58 1.51 1.41 1.32 1.34 1.34 1.25 1.20 1.12

GEFSSGP_prec_meanprecacc_228.txt.gz
Total_Precipitation_Accumulation
0.05 0.05 0.05 0.06 0.05 0.03 0.00 0.00 0.00 0.00 0.00 0.00 0.00 0.00 0.00 0.00 0.00 0.00 0.01 0.01 0.02 0.03 0.06 0.16 0.23 0.27 0.34 0.37 0.34 0.31 0.29 0.34 0.40 0.43 0.48 0.55 0.56 0.53 0.52 0.50 0.48 0.50 0.57 0.61 0.62 0.61 0.59 0.53 0.52
0.06 0.08 0.09 0.09 0.05 0.01 0.00 0.00 0.00 0.00 0.00 0.00 0.00 0.00 0.00 0.00 0.00 0.00 0.01 0.01 0.01 0.02 0.04 0.11 0.21 0.27 0.33 0.35 0.33 0.32 0.31 0.32 0.37 0.42 0.46 0.50 0.52 0.54 0.53 0.49 0.48 0.52 0.60 0.66 0.67 0.67 0.63 0.57 0.53
0.09 0.12 0.11 0.09 0.04 0.00 0.00 0.00 0.00 0.00 0.00 0.00 0.00 0.00 0.00 0.00 0.00 0.00 0.01 0.00 0.01 0.02 0.04 0.11 0.22 0.29 0.34 0.37 0.36 0.34 0.34 0.35 0.37 0.41 0.46 0.54 0.53 0.52 0.49 0.45 0.45 0.50 0.60 0.67 0.68 0.63 0.59 0.58 0.56
0.11 0.16 0.15 0.09 0.02 0.00 0.00 0.00 0.00 0.00 0.00 0.00 0.00 0.00 0.00 0.00 0.00 0.00 0.00 0.00 0.01 0.03 0.04 0.13 0.24 0.31 0.35 0.38 0.39 0.37 0.37 0.40 0.42 0.44 0.49 0.56 0.57 0.56 0.52 0.46 0.43 0.44 0.51 0.59 0.59 0.56 0.57 0.57 0.52
0.16 0.18 0.16 0.08 0.01 0.00 0.00 0.00 0.00 0.00 0.00 0.00 0.00 0.00 0.00 0.00 0.00 0.00 0.00 0.01 0.01 0.03 0.06 0.14 0.27 0.34 0.39 0.41 0.41 0.42 0.42 0.45 0.47 0.50 0.54 0.59 0.59 0.58 0.56 0.54 0.49 0.45 0.45 0.49 0.52 0.52 0.53 0.54 0.50
0.22 0.21 0.14 0.05 0.01 0.00 0.00 0.00 0.00 0.00 0.00 0.00 0.00 0.00 0.00 0.00 0.00 0.01 0.01 0.01 0.02 0.03 0.08 0.17 0.32 0.39 0.44 0.46 0.46 0.47 0.49 0.52 0.54 0.56 0.60 0.61 0.58 0.58 0.57 0.56 0.51 0.46 0.43 0.41 0.44 0.46 0.48 0.49 0.48
0.22 0.22 0.12 0.05 0.02 0.01 0.01 0.00 0.01 0.00 0.00 0.00 0.00 0.01 0.01 0.01 0.01 0.01 0.02 0.02 0.03 0.05 0.10 0.19 0.31 0.39 0.46 0.50 0.50 0.51 0.54 0.56 0.59 0.61 0.63 0.62 0.59 0.59 0.61 0.58 0.52 0.49 0.47 0.42 0.38 0.38 0.39 0.38 0.41
0.25 0.29 0.15 0.06 0.03 0.02 0.00 0.00 0.01 0.01 0.01 0.00 0.01 0.01 0.01 0.01 0.01 0.02 0.04 0.05 0.06 0.09 0.14 0.21 0.32 0.39 0.45 0.51 0.55 0.55 0.57 0.60 0.64 0.67 0.65 0.61 0.62 0.62 0.61 0.55 0.49 0.50 0.51 0.45 0.41 0.39 0.36 0.33 0.32
0.35 0.41 0.19 0.06 0.04 0.03 0.02 0.02 0.01 0.01 0.02 0.01 0.01 0.01 0.01 0.01 0.02 0.04 0.06 0.09 0.13 0.16 0.19 0.27 0.37 0.44 0.49 0.55 0.58 0.64 0.68 0.73 0.76 0.73 0.69 0.70 0.68 0.63 0.55 0.47 0.47 0.51 0.52 0.47 0.44 0.42 0.39 0.36 0.30
0.39 0.34 0.15 0.04 0.03 0.05 0.05 0.05 0.04 0.04 0.03 0.02 0.02 0.02 0.02 0.02 0.04 0.06 0.07 0.11 0.13 0.17 0.22 0.30 0.40 0.47 0.55 0.60 0.68 0.79 0.80 0.81 0.80 0.71 0.67 0.69 0.64 0.60 0.55 0.50 0.49 0.53 0.53 0.51 0.49 0.48 0.46 0.42 0.33
0.31 0.23 0.10 0.06 0.04 0.07 0.07 0.07 0.08 0.09 0.07 0.03 0.04 0.04 0.03 0.04 0.07 0.10 0.11 0.11 0.12 0.14 0.21 0.29 0.42 0.53 0.58 0.62 0.70 0.80 0.82 0.82 0.82 0.76 0.71 0.69 0.71 0.68 0.64 0.59 0.61 0.60 0.57 0.56 0.56 0.59 0.54 0.49 0.45
0.24 0.16 0.11 0.09 0.09 0.10 0.11 0.10 0.10 0.10 0.08 0.04 0.04 0.06 0.06 0.07 0.09 0.10 0.12 0.12 0.15 0.18 0.24 0.33 0.46 0.54 0.58 0.60 0.67 0.73 0.75 0.74 0.74 0.74 0.75 0.77 0.77 0.72 0.69 0.65 0.67 0.68 0.66 0.62 0.61 0.58 0.55 0.52 0.47
0.21 0.12 0.09 0.10 0.12 0.13 0.13 0.11 0.10 0.07 0.04 0.05 0.05 0.06 0.08 0.08 0.09 0.09 0.12 0.17 0.19 0.21 0.28 0.39 0.48 0.55 0.62 0.66 0.70 0.73 0.70 0.66 0.69 0.73 0.77 0.72 0.67 0.61 0.56 0.55 0.54 0.50 0.49 0.49 0.52 0.53 0.52 0.50 0.47
0.17 0.12 0.09 0.11 0.12 0.14 0.15 0.11 0.09 0.05 0.03 0.05 0.07 0.07 0.07 0.08 0.09 0.11 0.13 0.19 0.23 0.24 0.31 0.43 0.52 0.59 0.68 0.67 0.69 0.71 0.69 0.66 0.69 0.69 0.67 0.66 0.62 0.58 0.51 0.48 0.47 0.44 0.40 0.37 0.38 0.38 0.40 0.41 0.39
0.20 0.21 0.15 0.09 0.10 0.12 0.19 0.18 0.07 0.04 0.04 0.07 0.09 0.08 0.07 0.08 0.10 0.11 0.12 0.14 0.20 0.26 0.35 0.45 0.56 0.69 0.75 0.73 0.74 0.76 0.75 0.71 0.69 0.68 0.65 0.65 0.62 0.59 0.57 0.51 0.47 0.45 0.44 0.44 0.42 0.41 0.40 0.37 0.34
0.30 0.35 0.26 0.10 0.08 0.12 0.27 0.23 0.06 0.04 0.08 0.10 0.10 0.09 0.09 0.08 0.10 0.13 0.15 0.16 0.20 0.29 0.40 0.49 0.61 0.76 0.83 0.81 0.81 0.80 0.79 0.80 0.76 0.72 0.69 0.65 0.61 0.59 0.59 0.57 0.53 0.51 0.52 0.53 0.52 0.47 0.44 0.41 0.37
0.41 0.37 0.22 0.09 0.08 0.15 0.27 0.20 0.05 0.05 0.09 0.10 0.11 0.11 0.10 0.10 0.11 0.14 0.17 0.19 0.21 0.29 0.40 0.52 0.62 0.76 0.89 0.94 0.90 0.88 0.83 0.84 0.84 0.78 0.72 0.69 0.63 0.58 0.57 0.56 0.58 0.60 0.64 0.62 0.58 0.53 0.47 0.45 0.41
0.38 0.26 0.16 0.09 0.08 0.14 0.19 0.14 0.06 0.06 0.10 0.10 0.11 0.13 0.12 0.14 0.15 0.17 0.20 0.23 0.25 0.29 0.39 0.52 0.65 0.82 0.94 1.11 1.14 1.11 1.02 0.91 0.88 0.85 0.75 0.68 0.67 0.64 0.62 0.60 0.60 0.65 0.69 0.67 0.64 0.57 0.51 0.47 0.46
0.25 0.25 0.18 0.08 0.07 0.15 0.15 0.10 0.08 0.08 0.10 0.11 0.12 0.14 0.15 0.16 0.19 0.21 0.26 0.33 0.35 0.38 0.43 0.51 0.66 0.83 1.00 1.13 1.20 1.17 1.11 0.95 0.89 0.87 0.82 0.74 0.70 0.72 0.72 0.66 0.67 0.65 0.67 0.64 0.63 0.63 0.61 0.56 0.52
0.28 0.32 0.23 0.13 0.08 0.17 0.17 0.10 0.07 0.08 0.11 0.13 0.13 0.16 0.18 0.16 0.18 0.19 0.24 0.35 0.41 0.43 0.46 0.50 0.62 0.74 0.92 1.05 1.10 1.17 1.12 1.02 0.92 0.89 0.87 0.80 0.71 0.75 0.81 0.75 0.70 0.68 0.66 0.68 0.69 0.67 0.68 0.68 0.63
0.33 0.30 0.23 0.19 0.16 0.20 0.24 0.17 0.06 0.05 0.07 0.10 0.11 0.13 0.16 0.18 0.18 0.19 0.23 0.32 0.41 0.45 0.49 0.54 0.58 0.66 0.78 1.03 1.25 1.38 1.42 1.30 1.13 1.01 0.92 0.82 0.74 0.69 0.77 0.81 0.75 0.71 0.69 0.67 0.65 0.65 0.64 0.68 0.63
0.37 0.19 0.20 0.24 0.38 0.38 0.33 0.35 0.08 0.04 0.05 0.07 0.09 0.10 0.11 0.15 0.15 0.16 0.20 0.28 0.36 0.44 0.54 0.63 0.62 0.68 0.78 0.96 1.26 1.42 1.46 1.34 1.09 0.93 0.90 0.87 0.81 0.74 0.71 0.79 0.81 0.78 0.76 0.72 0.66 0.64 0.64 0.70 0.72
0.28 0.19 0.23 0.29 0.47 0.56 0.38 0.43 0.14 0.06 0.08 0.06 0.06 0.08 0.09 0.12 0.14 0.14 0.17 0.22 0.31 0.44 0.56 0.68 0.74 0.79 0.88 0.95 1.13 1.36 1.47 1.39 1.25 1.11 1.00 0.94 0.92 0.87 0.78 0.75 0.80 0.81 0.80 0.79 0.74 0.69 0.70 0.72 0.76
0.26 0.31 0.40 0.47 0.80 1.04 0.38 0.36 0.21 0.12 0.13 0.10 0.08 0.09 0.10 0.13 0.15 0.13 0.14 0.17 0.27 0.42 0.51 0.67 0.80 0.83 0.95 1.00 1.10 1.23 1.40 1.50 1.47 1.36 1.23 1.08 1.02 0.97 0.94 0.81 0.78 0.80 0.81 0.82 0.79 0.73 0.72 0.74 0.75
0.48 0.83 1.26 1.36 1.45 0.90 0.18 0.25 0.23 0.12 0.09 0.12 0.14 0.12 0.12 0.12 0.14 0.14 0.13 0.14 0.22 0.39 0.50 0.63 0.80 0.81 0.90 0.97 1.06 1.17 1.31 1.46 1.57 1.48 1.31 1.21 1.16 1.07 0.97 0.92 0.83 0.81 0.80 0.80 0.81 0.82 0.76 0.72 0.77
0.51 0.78 1.09 0.99 0.63 0.23 0.11 0.20 0.18 0.11 0.07 0.06 0.08 0.11 0.12 0.12 0.12 0.14 0.14 0.14 0.18 0.28 0.41 0.54 0.75 0.77 0.79 0.88 0.96 1.10 1.28 1.45 1.54 1.57 1.40 1.28 1.20 1.09 0.98 0.94 0.88 0.83 0.84 0.86 0.85 0.83 0.81 0.76 0.74
0.49 0.54 0.50 0.72 0.52 0.30 0.21 0.17 0.13 0.07 0.04 0.04 0.05 0.06 0.09 0.12 0.11 0.12 0.15 0.15 0.19 0.24 0.34 0.47 0.70 0.78 0.73 0.79 0.88 1.00 1.15 1.36 1.45 1.49 1.47 1.35 1.27 1.20 1.13 1.05 0.99 0.92 0.90 0.90 0.90 0.87 0.82 0.81 0.82
0.41 0.51 0.57 0.94 0.90 0.54 0.30 0.18 0.19 0.13 0.08 0.06 0.06 0.07 0.09 0.10 0.10 0.10 0.13 0.14 0.17 0.22 0.31 0.44 0.61 0.79 0.77 0.77 0.83 0.93 1.01 1.17 1.32 1.43 1.53 1.41 1.34 1.31 1.32 1.26 1.19 1.10 1.05 1.02 0.99 0.95 0.86 0.85 0.85
0.50 0.65 0.83 0.86 0.68 0.55 0.41 0.29 0.25 0.19 0.14 0.11 0.09 0.08 0.08 0.09 0.10 0.10 0.12 0.12 0.15 0.18 0.25 0.41 0.55 0.70 0.83 0.85 0.83 0.92 0.99 1.12 1.22 1.25 1.33 1.42 1.42 1.36 1.42 1.46 1.41 1.32 1.23 1.19 1.17 1.12 1.04 0.99 0.91
0.54 0.62 0.73 0.90 0.69 0.38 0.38 0.33 0.22 0.15 0.13 0.12 0.10 0.08 0.07 0.08 0.09 0.10 0.11 0.12 0.13 0.16 0.22 0.34 0.51 0.64 0.76 0.86 0.89 0.91 0.99 1.12 1.18 1.15 1.14 1.21 1.31 1.34 1.39 1.56 1.58 1.52 1.41 1.32 1.34 1.34 1.25 1.20 1.12

GEFSSGP_prec_meanprecacc_234.txt.gz
Total_Precipitation_Accumulation
0.07 0.06 0.06 0.06 0.05 0.03 0.00 0.00 0.00 0.00 0.00 0.00 0.00 0.00 0.00 0.00 0.00 0.01 0.01 0.01 0.02 0.04 0.07 0.17 0.24 0.29 0.36 0.38 0.36 0.32 0.29 0.36 0.41 0.44 0.49 0.57 0.57 0.53 0.53 0.51 0.49 0.51 0.59 0.62 0.64 0.62 0.60 0.53 0.53
0.06 0.08 0.09 0.09 0.05 0.01 0.00 0.00 0.00 0.00 0.00 0.00 0.00 0.00 0.00 0.00 0.00 0.00 0.01 0.01 0.02 0.02 0.05 0.12 0.23 0.29 0.35 0.37 0.35 0.33 0.32 0.33 0.38 0.42 0.46 0.51 0.53 0.54 0.53 0.49 0.49 0.53 0.61 0.66 0.68 0.68 0.64 0.58 0.53
0.10 0.13 0.12 0.10 0.04 0.00 0.00 0.00 0.00 0.00 0.00 0.00 0.00 0.00 0.00 0.00 0.00 0.00 0.01 0.01 0.01 0.02 0.04 0.12 0.23 0.30 0.36 0.39 0.38 0.37 0.36 0.36 0.38 0.41 0.47 0.54 0.53 0.52 0.49 0.46 0.45 0.51 0.60 0.67 0.68 0.63 0.60 0.59 0.56
0.12 0.17 0.15 0.09 0.02 0.00 0.00 0.00 0.00 0.00 0.00 0.00 0.00 0.00 0.00 0.00 0.00 0.00 0.01 0.01 0.01 0.03 0.05 0.14 0.25 0.32 0.37 0.40 0.41 0.40 0.40 0.42 0.44 0.45 0.50 0.57 0.58 0.57 0.52 0.46 0.43 0.44 0.51 0.59 0.59 0.57 0.57 0.57 0.52
0.17 0.18 0.16 0.08 0.01 0.00 0.00 0.00 0.00 0.00 0.00 0.00 0.00 0.00 0.00 0.00 0.00 0.00 0.01 0.01 0.01 0.03 0.06 0.15 0.29 0.36 0.41 0.43 0.43 0.44 0.45 0.48 0.51 0.53 0.56 0.60 0.59 0.59 0.57 0.54 0.50 0.46 0.45 0.49 0.52 0.52 0.54 0.55 0.50
0.23 0.21 0.14 0.05 0.01 0.00 0.00 0.00 0.00 0.00 0.00 0.00 0.00 0.00 0.00 0.00 0.01 0.01 0.01 0.01 0.02 0.04 0.08 0.18 0.34 0.41 0.46 0.49 0.48 0.49 0.51 0.54 0.56 0.59 0.62 0.62 0.59 0.58 0.57 0.56 0.51 0.46 0.43 0.42 0.44 0.46 0.48 0.49 0.48
0.23 0.22 0.12 0.05 0.02 0.01 0.01 0.00 0.01 0.00 0.00 0.00 0.00 0.01 0.01 0.01 0.01 0.01 0.02 0.03 0.04 0.06 0.11 0.20 0.33 0.41 0.49 0.53 0.52 0.54 0.56 0.57 0.61 0.63 0.65 0.65 0.60 0.60 0.62 0.58 0.52 0.49 0.47 0.42 0.38 0.38 0.39 0.38 0.41
0.26 0.30 0.16 0.06 0.03 0.02 0.00 0.00 0.01 0.01 0.01 0.00 0.01 0.01 0.01 0.01 0.02 0.02 0.04 0.05 0.07 0.10 0.15 0.23 0.33 0.40 0.47 0.54 0.57 0.57 0.60 0.63 0.66 0.69 0.67 0.63 0.64 0.64 0.62 0.55 0.50 0.51 0.51 0.46 0.41 0.39 0.36 0.33 0.33
0.36 0.41 0.20 0.06 0.04 0.03 0.02 0.02 0.01 0.01 0.02 0.01 0.01 0.01 0.01 0.01 0.02 0.04 0.07 0.10 0.14 0.17 0.21 0.28 0.38 0.45 0.51 0.57 0.60 0.67 0.72 0.77 0.79 0.75 0.71 0.72 0.70 0.65 0.56 0.48 0.47 0.51 0.52 0.47 0.44 0.43 0.39 0.36 0.30
0.40 0.35 0.15 0.04 0.03 0.05 0.05 0.05 0.04 0.04 0.03 0.02 0.02 0.02 0.02 0.02 0.04 0.06 0.08 0.11 0.14 0.18 0.23 0.31 0.41 0.48 0.56 0.61 0.70 0.81 0.81 0.84 0.82 0.73 0.69 0.71 0.65 0.62 0.56 0.51 0.49 0.53 0.53 0.51 0.49 0.48 0.47 0.42 0.33
0.31 0.23 0.10 0.06 0.04 0.07 0.07 0.07 0.08 0.09 0.07 0.03 0.04 0.04 0.03 0.04 0.07 0.10 0.11 0.12 0.12 0.15 0.21 0.30 0.43 0.54 0.59 0.63 0.71 0.81 0.83 0.83 0.84 0.78 0.73 0.71 0.73 0.70 0.65 0.60 0.61 0.60 0.57 0.56 0.56 0.59 0.54 0.49 0.45
0.24 0.16 0.11 0.09 0.09 0.10 0.11 0.10 0.10 0.10 0.08 0.04 0.04 0.06 0.06 0.07 0.09 0.10 0.12 0.13 0.15 0.18 0.24 0.34 0.47 0.56 0.59 0.61 0.68 0.74 0.76 0.75 0.76 0.75 0.77 0.78 0.78 0.73 0.71 0.66 0.67 0.68 0.66 0.63 0.61 0.58 0.55 0.52 0.47
0.21 0.12 0.09 0.10 0.12 0.13 0.13 0.11 0.10 0.07 0.04 0.05 0.05 0.06 0.08 0.08 0.09 0.10 0.12 0.17 0.19 0.21 0.29 0.40 0.49 0.56 0.64 0.68 0.73 0.75 0.71 0.67 0.70 0.74 0.78 0.73 0.68 0.62 0.57 0.56 0.55 0.51 0.50 0.50 0.52 0.53 0.52 0.50 0.47
0.18 0.13 0.10 0.11 0.13 0.14 0.15 0.11 0.09 0.05 0.03 0.05 0.07 0.07 0.08 0.08 0.10 0.11 0.13 0.19 0.23 0.24 0.31 0.44 0.54 0.61 0.69 0.69 0.72 0.74 0.71 0.67 0.70 0.70 0.68 0.66 0.63 0.58 0.52 0.49 0.49 0.45 0.40 0.38 0.38 0.38 0.40 0.41 0.39
0.20 0.21 0.15 0.09 0.10 0.12 0.19 0.18 0.07 0.04 0.04 0.07 0.09 0.08 0.08 0.08 0.10 0.11 0.12 0.15 0.20 0.27 0.36 0.46 0.58 0.71 0.77 0.75 0.77 0.80 0.77 0.73 0.70 0.69 0.66 0.66 0.62 0.60 0.57 0.52 0.48 0.46 0.45 0.45 0.42 0.41 0.40 0.37 0.34
0.31 0.36 0.27 0.10 0.08 0.12 0.27 0.23 0.06 0.04 0.08 0.10 0.10 0.10 0.09 0.08 0.10 0.13 0.15 0.16 0.20 0.30 0.41 0.50 0.63 0.77 0.85 0.84 0.83 0.83 0.83 0.82 0.77 0.72 0.70 0.66 0.63 0.60 0.59 0.57 0.53 0.53 0.54 0.54 0.53 0.47 0.45 0.41 0.37
0.42 0.38 0.22 0.09 0.08 0.15 0.27 0.21 0.05 0.05 0.09 0.10 0.11 0.11 0.11 0.10 0.12 0.15 0.17 0.19 0.21 0.29 0.40 0.52 0.63 0.77 0.90 0.96 0.92 0.91 0.86 0.87 0.86 0.80 0.73 0.70 0.64 0.60 0.59 0.58 0.60 0.62 0.66 0.64 0.59 0.55 0.48 0.45 0.42
0.39 0.26 0.16 0.09 0.08 0.14 0.20 0.14 0.06 0.06 0.10 0.10 0.11 0.13 0.12 0.14 0.15 0.17 0.20 0.23 0.25 0.29 0.40 0.53 0.66 0.83 0.96 1.12 1.15 1.12 1.04 0.92 0.90 0.86 0.76 0.70 0.69 0.65 0.63 0.62 0.63 0.68 0.71 0.69 0.66 0.59 0.53 0.48 0.47
0.26 0.25 0.18 0.08 0.07 0.15 0.15 0.10 0.08 0.08 0.10 0.11 0.12 0.14 0.15 0.16 0.19 0.21 0.27 0.33 0.36 0.38 0.43 0.52 0.66 0.83 1.01 1.14 1.21 1.17 1.11 0.96 0.90 0.88 0.84 0.75 0.71 0.74 0.73 0.67 0.67 0.66 0.68 0.66 0.64 0.64 0.63 0.58 0.54
0.29 0.33 0.24 0.13 0.09 0.18 0.17 0.10 0.07 0.08 0.11 0.13 0.13 0.16 0.18 0.16 0.18 0.19 0.24 0.36 0.41 0.44 0.46 0.50 0.62 0.75 0.92 1.06 1.11 1.18 1.13 1.04 0.94 0.92 0.89 0.82 0.73 0.76 0.82 0.76 0.70 0.68 0.66 0.69 0.70 0.69 0.69 0.70 0.65
0.35 0.31 0.23 0.19 0.16 0.20 0.24 0.17 0.06 0.05 0.07 0.10 0.11 0.13 0.16 0.18 0.18 0.19 0.23 0.32 0.41 0.45 0.49 0.54 0.59 0.66 0.78 1.04 1.27 1.39 1.43 1.31 1.14 1.02 0.94 0.83 0.75 0.70 0.78 0.83 0.77 0.72 0.69 0.67 0.66 0.65 0.66 0.69 0.64
0.40 0.20 0.20 0.24 0.38 0.39 0.33 0.36 0.09 0.04 0.05 0.07 0.09 0.10 0.11 0.15 0.15 0.16 0.20 0.28 0.36 0.44 0.54 0.63 0.62 0.69 0.79 0.97 1.27 1.43 1.47 1.35 1.10 0.95 0.91 0.88 0.82 0.75 0.72 0.80 0.82 0.80 0.77 0.72 0.67 0.65 0.64 0.70 0.73
0.31 0.21 0.24 0.30 0.47 0.56 0.39 0.44 0.14 0.06 0.08 0.06 0.06 0.08 0.09 0.12 0.14 0.14 0.17 0.22 0.31 0.44 0.56 0.68 0.74 0.79 0.89 0.97 1.15 1.38 1.48 1.41 1.27 1.12 1.00 0.94 0.92 0.88 0.79 0.76 0.80 0.82 0.81 0.80 0.74 0.69 0.70 0.73 0.76
0.28 0.34 0.43 0.50 0.82 1.06 0.38 0.36 0.21 0.12 0.13 0.10 0.08 0.09 0.10 0.13 0.15 0.13 0.14 0.17 0.27 0.42 0.51 0.67 0.80 0.83 0.95 1.00 1.11 1.24 1.41 1.51 1.48 1.36 1.23 1.08 1.02 0.97 0.94 0.82 0.79 0.80 0.81 0.82 0.79 0.73 0.72 0.74 0.75
0.53 0.90 1.36 1.46 1.52 0.93 0.19 0.25 0.23 0.12 0.09 0.12 0.14 0.12 0.12 0.12 0.14 0.14 0.13 0.14 0.22 0.39 0.50 0.63 0.80 0.81 0.90 0.97 1.06 1.17 1.32 1.47 1.58 1.48 1.32 1.21 1.17 1.08 0.98 0.93 0.84 0.81 0.80 0.80 0.81 0.82 0.76 0.72 0.77
0.57 0.84 1.14 1.04 0.65 0.24 0.12 0.20 0.18 0.11 0.07 0.06 0.08 0.11 0.12 0.12 0.12 0.14 0.14 0.14 0.18 0.28 0.41 0.54 0.75 0.77 0.80 0.88 0.97 1.11 1.28 1.46 1.55 1.57 1.40 1.28 1.20 1.10 0.98 0.95 0.89 0.83 0.84 0.86 0.85 0.83 0.81 0.76 0.74
0.52 0.58 0.53 0.75 0.53 0.31 0.21 0.17 0.13 0.07 0.04 0.04 0.05 0.06 0.09 0.12 0.11 0.12 0.15 0.15 0.19 0.24 0.34 0.47 0.70 0.78 0.73 0.79 0.88 1.01 1.16 1.37 1.46 1.49 1.48 1.35 1.27 1.21 1.13 1.05 1.00 0.93 0.91 0.90 0.90 0.87 0.82 0.81 0.82
0.43 0.54 0.62 1.00 0.93 0.55 0.30 0.18 0.19 0.13 0.08 0.06 0.06 0.07 0.09 0.10 0.10 0.10 0.13 0.14 0.17 0.22 0.31 0.44 0.61 0.79 0.77 0.77 0.84 0.93 1.01 1.18 1.32 1.44 1.53 1.41 1.34 1.31 1.32 1.26 1.20 1.10 1.05 1.03 1.00 0.95 0.86 0.85 0.85
0.53 0.69 0.89 0.92 0.72 0.58 0.42 0.29 0.26 0.19 0.14 0.11 0.09 0.08 0.08 0.09 0.10 0.10 0.12 0.12 0.15 0.18 0.25 0.41 0.55 0.70 0.83 0.85 0.83 0.92 1.00 1.12 1.22 1.26 1.33 1.42 1.42 1.36 1.42 1.46 1.41 1.32 1.23 1.19 1.18 1.12 1.04 0.99 0.92
0.56 0.65 0.77 0.96 0.74 0.41 0.40 0.34 0.23 0.16 0.14 0.12 0.10 0.08 0.07 0.08 0.09 0.10 0.11 0.12 0.13 0.16 0.22 0.34 0.51 0.64 0.76 0.86 0.89 0.91 0.99 1.13 1.18 1.15 1.14 1.21 1.31 1.34 1.39 1.56 1.58 1.52 1.41 1.33 1.34 1.34 1.26 1.21 1.12

GEFSSGP_prec_meanprecacc_240.txt.gz
Total_Precipitation_Accumulation
0.07 0.06 0.06 0.07 0.05 0.03 0.00 0.00 0.00 0.00 0.00 0.00 0.00 0.00 0.00 0.00 0.00 0.01 0.01 0.01 0.02 0.04 0.07 0.18 0.25 0.29 0.36 0.39 0.37 0.33 0.30 0.37 0.42 0.44 0.49 0.58 0.58 0.54 0.54 0.51 0.50 0.52 0.59 0.62 0.65 0.62 0.60 0.54 0.54
0.07 0.09 0.10 0.10 0.05 0.02 0.00 0.00 0.00 0.00 0.00 0.00 0.00 0.00 0.00 0.00 0.00 0.01 0.01 0.01 0.02 0.03 0.05 0.12 0.23 0.29 0.35 0.37 0.36 0.34 0.33 0.34 0.39 0.43 0.47 0.52 0.54 0.55 0.54 0.51 0.51 0.55 0.62 0.67 0.68 0.68 0.64 0.58 0.53
0.11 0.14 0.12 0.10 0.04 0.00 0.00 0.00 0.00 0.00 0.00 0.00 0.00 0.00 0.00 0.00 0.00 0.01 0.01 0.01 0.02 0.03 0.05 0.12 0.24 0.30 0.36 0.40 0.38 0.37 0.37 0.38 0.39 0.42 0.47 0.55 0.54 0.53 0.50 0.47 0.47 0.52 0.63 0.69 0.69 0.63 0.60 0.59 0.57
0.13 0.18 0.16 0.10 0.02 0.00 0.00 0.00 0.00 0.00 0.00 0.00 0.00 0.00 0.00 0.00 0.00 0.01 0.01 0.01 0.02 0.03 0.06 0.14 0.25 0.33 0.38 0.41 0.42 0.41 0.41 0.44 0.46 0.47 0.51 0.58 0.59 0.58 0.53 0.47 0.44 0.45 0.52 0.59 0.60 0.57 0.57 0.58 0.52
0.18 0.19 0.16 0.08 0.01 0.00 0.00 0.00 0.00 0.00 0.00 0.00 0.00 0.00 0.00 0.00 0.00 0.00 0.01 0.02 0.02 0.04 0.07 0.16 0.30 0.38 0.42 0.44 0.44 0.46 0.47 0.50 0.52 0.54 0.57 0.61 0.61 0.60 0.57 0.55 0.50 0.46 0.46 0.49 0.52 0.53 0.54 0.55 0.50
0.25 0.22 0.15 0.05 0.01 0.00 0.00 0.00 0.00 0.00 0.00 0.00 0.00 0.00 0.00 0.00 0.01 0.01 0.01 0.02 0.02 0.04 0.09 0.19 0.36 0.43 0.49 0.51 0.51 0.53 0.55 0.56 0.59 0.60 0.64 0.63 0.60 0.59 0.58 0.56 0.51 0.47 0.43 0.42 0.44 0.46 0.48 0.49 0.48
0.25 0.24 0.12 0.05 0.02 0.01 0.01 0.00 0.01 0.00 0.00 0.00 0.00 0.01 0.01 0.01 0.01 0.02 0.02 0.03 0.05 0.08 0.13 0.22 0.35 0.43 0.52 0.56 0.56 0.57 0.59 0.60 0.64 0.66 0.68 0.66 0.61 0.61 0.62 0.58 0.52 0.49 0.47 0.43 0.38 0.38 0.39 0.38 0.41
0.28 0.32 0.16 0.06 0.03 0.02 0.00 0.00 0.01 0.01 0.01 0.00 0.01 0.01 0.01 0.01 0.02 0.03 0.04 0.06 0.09 0.13 0.18 0.25 0.35 0.42 0.49 0.56 0.60 0.59 0.62 0.65 0.69 0.72 0.70 0.66 0.66 0.65 0.63 0.56 0.50 0.51 0.51 0.46 0.42 0.39 0.36 0.33 0.33
0.39 0.43 0.20 0.06 0.04 0.03 0.02 0.02 0.01 0.01 0.02 0.01 0.01 0.01 0.01 0.01 0.02 0.04 0.08 0.11 0.15 0.19 0.23 0.31 0.40 0.47 0.54 0.60 0.62 0.69 0.74 0.80 0.81 0.78 0.74 0.74 0.72 0.68 0.59 0.48 0.47 0.51 0.52 0.47 0.44 0.43 0.39 0.36 0.30
0.42 0.36 0.15 0.04 0.03 0.05 0.05 0.05 0.04 0.04 0.03 0.02 0.02 0.02 0.02 0.02 0.04 0.06 0.08 0.12 0.15 0.19 0.25 0.33 0.43 0.50 0.59 0.63 0.72 0.84 0.84 0.86 0.85 0.75 0.71 0.74 0.68 0.64 0.58 0.51 0.49 0.54 0.54 0.51 0.49 0.48 0.47 0.42 0.33
0.33 0.24 0.10 0.06 0.04 0.07 0.08 0.07 0.08 0.10 0.07 0.03 0.04 0.04 0.03 0.04 0.07 0.10 0.12 0.12 0.13 0.16 0.22 0.31 0.45 0.57 0.61 0.64 0.74 0.83 0.85 0.85 0.86 0.81 0.77 0.74 0.75 0.71 0.67 0.61 0.61 0.60 0.57 0.56 0.56 0.59 0.54 0.49 0.45
0.25 0.17 0.12 0.10 0.09 0.11 0.11 0.11 0.11 0.10 0.08 0.04 0.04 0.06 0.06 0.07 0.09 0.10 0.13 0.13 0.16 0.20 0.26 0.35 0.49 0.59 0.62 0.63 0.69 0.75 0.77 0.76 0.77 0.78 0.80 0.80 0.80 0.76 0.73 0.68 0.69 0.70 0.67 0.63 0.61 0.58 0.55 0.52 0.47
0.22 0.12 0.10 0.10 0.12 0.13 0.13 0.12 0.11 0.08 0.04 0.05 0.05 0.06 0.08 0.08 0.09 0.10 0.13 0.18 0.20 0.22 0.30 0.42 0.52 0.60 0.67 0.71 0.75 0.76 0.73 0.69 0.72 0.76 0.80 0.75 0.69 0.64 0.59 0.58 0.57 0.52 0.50 0.50 0.52 0.53 0.52 0.50 0.47
0.18 0.13 0.10 0.11 0.13 0.14 0.16 0.12 0.10 0.06 0.03 0.05 0.07 0.07 0.08 0.08 0.10 0.11 0.14 0.20 0.24 0.25 0.33 0.47 0.57 0.65 0.73 0.71 0.75 0.76 0.73 0.70 0.73 0.72 0.69 0.68 0.64 0.59 0.54 0.50 0.50 0.46 0.41 0.38 0.39 0.39 0.40 0.41 0.39
0.21 0.22 0.16 0.10 0.10 0.12 0.19 0.19 0.08 0.05 0.05 0.07 0.09 0.08 0.08 0.08 0.10 0.12 0.13 0.15 0.21 0.28 0.38 0.48 0.61 0.76 0.81 0.78 0.80 0.83 0.80 0.76 0.73 0.71 0.67 0.67 0.64 0.61 0.58 0.53 0.49 0.47 0.46 0.45 0.43 0.42 0.40 0.37 0.34
0.33 0.38 0.28 0.11 0.08 0.12 0.28 0.23 0.06 0.04 0.09 0.10 0.10 0.10 0.09 0.09 0.11 0.13 0.16 0.17 0.21 0.31 0.42 0.52 0.65 0.81 0.89 0.88 0.88 0.87 0.86 0.86 0.81 0.75 0.72 0.68 0.64 0.61 0.60 0.58 0.54 0.53 0.54 0.55 0.54 0.48 0.45 0.41 0.37
0.46 0.41 0.24 0.10 0.08 0.15 0.28 0.21 0.05 0.05 0.10 0.11 0.11 0.11 0.11 0.10 0.12 0.15 0.18 0.20 0.22 0.30 0.41 0.53 0.65 0.80 0.93 1.00 0.96 0.95 0.90 0.91 0.90 0.83 0.76 0.72 0.66 0.62 0.60 0.59 0.60 0.63 0.66 0.65 0.61 0.56 0.49 0.46 0.42
0.42 0.27 0.17 0.09 0.08 0.14 0.20 0.14 0.06 0.06 0.10 0.10 0.11 0.13 0.12 0.14 0.15 0.18 0.22 0.25 0.26 0.30 0.40 0.54 0.67 0.85 0.98 1.15 1.18 1.15 1.06 0.95 0.93 0.90 0.78 0.71 0.70 0.67 0.65 0.63 0.64 0.69 0.72 0.70 0.67 0.61 0.56 0.52 0.50
0.27 0.27 0.19 0.08 0.07 0.16 0.15 0.11 0.08 0.08 0.10 0.11 0.12 0.14 0.15 0.16 0.19 0.22 0.28 0.35 0.37 0.39 0.44 0.53 0.67 0.84 1.02 1.15 1.23 1.19 1.13 0.97 0.91 0.90 0.85 0.76 0.72 0.75 0.74 0.68 0.69 0.68 0.69 0.67 0.65 0.66 0.65 0.61 0.59
0.31 0.34 0.25 0.14 0.09 0.18 0.17 0.10 0.07 0.08 0.11 0.13 0.13 0.16 0.18 0.16 0.18 0.20 0.25 0.37 0.42 0.45 0.47 0.51 0.62 0.75 0.93 1.06 1.12 1.19 1.14 1.05 0.96 0.93 0.91 0.83 0.74 0.78 0.84 0.77 0.71 0.70 0.68 0.70 0.71 0.69 0.70 0.71 0.66
0.37 0.32 0.25 0.21 0.17 0.21 0.25 0.18 0.06 0.05 0.07 0.10 0.11 0.13 0.16 0.18 0.18 0.19 0.23 0.33 0.42 0.46 0.50 0.54 0.59 0.67 0.79 1.04 1.27 1.40 1.44 1.32 1.15 1.03 0.94 0.84 0.77 0.72 0.80 0.84 0.78 0.73 0.70 0.68 0.67 0.66 0.66 0.69 0.64
0.42 0.22 0.22 0.27 0.41 0.41 0.34 0.37 0.09 0.04 0.05 0.07 0.09 0.10 0.11 0.15 0.15 0.16 0.21 0.28 0.37 0.44 0.54 0.63 0.63 0.70 0.79 0.97 1.27 1.43 1.48 1.36 1.10 0.95 0.92 0.89 0.83 0.77 0.73 0.81 0.83 0.81 0.78 0.73 0.67 0.65 0.65 0.71 0.74
0.33 0.22 0.25 0.31 0.50 0.59 0.40 0.45 0.15 0.06 0.08 0.06 0.06 0.08 0.09 0.12 0.14 0.14 0.17 0.22 0.31 0.45 0.56 0.69 0.74 0.80 0.89 0.97 1.15 1.39 1.49 1.41 1.27 1.12 1.01 0.95 0.93 0.89 0.80 0.77 0.81 0.82 0.81 0.80 0.74 0.70 0.71 0.73 0.77
0.31 0.37 0.45 0.53 0.87 1.12 0.39 0.36 0.21 0.12 0.13 0.10 0.08 0.09 0.10 0.13 0.15 0.13 0.14 0.17 0.27 0.43 0.52 0.68 0.80 0.83 0.95 1.01 1.12 1.25 1.42 1.52 1.49 1.37 1.23 1.09 1.03 0.98 0.95 0.82 0.79 0.80 0.81 0.82 0.80 0.74 0.72 0.74 0.75
0.56 0.96 1.45 1.56 1.62 0.98 0.19 0.25 0.23 0.12 0.09 0.12 0.14 0.12 0.12 0.12 0.14 0.14 0.13 0.14 0.22 0.40 0.51 0.64 0.80 0.81 0.90 0.98 1.07 1.18 1.33 1.48 1.58 1.49 1.33 1.22 1.18 1.08 0.98 0.93 0.84 0.82 0.80 0.80 0.82 0.82 0.76 0.72 0.77
0.59 0.88 1.21 1.10 0.69 0.25 0.12 0.20 0.18 0.11 0.07 0.06 0.08 0.11 0.12 0.12 0.12 0.14 0.14 0.14 0.19 0.28 0.41 0.55 0.75 0.78 0.80 0.88 0.97 1.11 1.29 1.46 1.55 1.58 1.41 1.29 1.21 1.10 0.99 0.95 0.89 0.83 0.84 0.86 0.85 0.83 0.81 0.76 0.74
0.54 0.62 0.57 0.80 0.56 0.32 0.21 0.17 0.13 0.07 0.04 0.04 0.05 0.07 0.09 0.12 0.11 0.12 0.15 0.15 0.19 0.24 0.34 0.47 0.70 0.78 0.73 0.79 0.88 1.01 1.16 1.37 1.46 1.49 1.48 1.36 1.28 1.21 1.14 1.05 1.00 0.93 0.91 0.90 0.90 0.87 0.82 0.82 0.82
0.45 0.57 0.66 1.07 1.00 0.58 0.31 0.18 0.20 0.13 0.08 0.06 0.06 0.07 0.09 0.10 0.10 0.10 0.13 0.14 0.17 0.22 0.31 0.44 0.61 0.79 0.77 0.77 0.84 0.93 1.01 1.18 1.33 1.44 1.54 1.42 1.35 1.31 1.32 1.26 1.20 1.10 1.05 1.03 1.00 0.95 0.86 0.85 0.85
0.56 0.73 0.93 0.97 0.77 0.62 0.45 0.31 0.26 0.19 0.14 0.12 0.09 0.08 0.08 0.09 0.10 0.10 0.12 0.12 0.15 0.18 0.26 0.41 0.55 0.70 0.83 0.85 0.83 0.92 1.00 1.12 1.22 1.26 1.34 1.42 1.42 1.37 1.42 1.46 1.41 1.32 1.23 1.19 1.18 1.12 1.04 1.00 0.92
0.60 0.69 0.81 1.01 0.78 0.44 0.43 0.38 0.24 0.16 0.14 0.13 0.11 0.08 0.07 0.08 0.10 0.10 0.11 0.12 0.13 0.16 0.22 0.34 0.51 0.64 0.76 0.86 0.89 0.91 0.99 1.13 1.19 1.15 1.14 1.21 1.32 1.34 1.39 1.56 1.58 1.52 1.41 1.33 1.34 1.34 1.26 1.21 1.12

GEFSSGP_prec_meanprecacc_246.txt.gz
Total_Precipitation_Accumulation
0.07 0.07 0.07 0.08 0.06 0.03 0.00 0.00 0.00 0.00 0.00 0.00 0.00 0.00 0.00 0.01 0.00 0.01 0.02 0.02 0.03 0.04 0.07 0.18 0.26 0.30 0.37 0.39 0.37 0.33 0.31 0.37 0.42 0.45 0.50 0.58 0.58 0.55 0.54 0.52 0.51 0.54 0.60 0.64 0.66 0.64 0.61 0.55 0.55
0.07 0.10 0.11 0.11 0.06 0.02 0.00 0.00 0.00 0.00 0.00 0.00 0.00 0.00 0.00 0.00 0.00 0.01 0.02 0.02 0.02 0.03 0.05 0.12 0.24 0.30 0.36 0.38 0.36 0.34 0.33 0.35 0.39 0.43 0.48 0.52 0.54 0.55 0.55 0.51 0.52 0.57 0.64 0.68 0.69 0.69 0.65 0.59 0.54
0.11 0.15 0.14 0.11 0.04 0.01 0.00 0.00 0.00 0.00 0.00 0.00 0.00 0.00 0.00 0.00 0.00 0.01 0.02 0.01 0.02 0.03 0.05 0.13 0.24 0.31 0.37 0.40 0.39 0.38 0.37 0.38 0.40 0.43 0.48 0.55 0.55 0.54 0.51 0.47 0.48 0.53 0.63 0.69 0.69 0.64 0.60 0.59 0.57
0.14 0.19 0.17 0.11 0.02 0.00 0.00 0.00 0.00 0.00 0.00 0.00 0.00 0.00 0.00 0.00 0.00 0.01 0.02 0.01 0.02 0.04 0.06 0.15 0.26 0.33 0.38 0.41 0.42 0.41 0.41 0.44 0.47 0.48 0.51 0.58 0.59 0.58 0.53 0.47 0.45 0.46 0.52 0.60 0.60 0.57 0.57 0.58 0.52
0.20 0.21 0.18 0.09 0.01 0.00 0.00 0.00 0.00 0.00 0.00 0.00 0.00 0.00 0.00 0.00 0.00 0.00 0.01 0.02 0.02 0.04 0.07 0.17 0.30 0.38 0.43 0.44 0.45 0.47 0.48 0.50 0.53 0.56 0.58 0.61 0.61 0.60 0.58 0.55 0.51 0.47 0.46 0.49 0.52 0.53 0.54 0.55 0.50
0.28 0.25 0.16 0.06 0.01 0.00 0.00 0.00 0.00 0.00 0.00 0.00 0.00 0.00 0.00 0.00 0.01 0.01 0.01 0.02 0.02 0.05 0.09 0.20 0.37 0.45 0.50 0.52 0.52 0.53 0.55 0.57 0.60 0.62 0.65 0.64 0.60 0.59 0.58 0.57 0.51 0.47 0.43 0.42 0.44 0.46 0.48 0.49 0.48
0.28 0.26 0.13 0.05 0.02 0.01 0.01 0.00 0.01 0.00 0.00 0.00 0.00 0.01 0.01 0.01 0.02 0.02 0.03 0.04 0.05 0.08 0.13 0.23 0.37 0.46 0.55 0.59 0.57 0.58 0.60 0.61 0.66 0.69 0.70 0.67 0.61 0.61 0.63 0.59 0.52 0.50 0.48 0.43 0.38 0.38 0.39 0.38 0.41
0.31 0.34 0.17 0.06 0.03 0.02 0.00 0.00 0.01 0.01 0.01 0.00 0.01 0.01 0.01 0.02 0.02 0.03 0.05 0.08 0.10 0.14 0.19 0.26 0.37 0.45 0.53 0.60 0.62 0.61 0.64 0.66 0.71 0.74 0.72 0.67 0.66 0.66 0.63 0.56 0.50 0.51 0.51 0.46 0.42 0.39 0.36 0.34 0.33
0.42 0.47 0.21 0.06 0.04 0.03 0.02 0.02 0.01 0.01 0.02 0.01 0.01 0.01 0.01 0.01 0.03 0.05 0.09 0.13 0.17 0.21 0.25 0.33 0.42 0.50 0.57 0.63 0.65 0.72 0.77 0.81 0.82 0.79 0.76 0.75 0.72 0.68 0.59 0.49 0.47 0.51 0.52 0.47 0.44 0.43 0.39 0.36 0.30
0.46 0.38 0.16 0.05 0.04 0.05 0.05 0.05 0.04 0.04 0.03 0.02 0.02 0.02 0.02 0.02 0.05 0.07 0.09 0.12 0.16 0.21 0.27 0.35 0.45 0.53 0.63 0.67 0.76 0.86 0.87 0.88 0.85 0.76 0.72 0.75 0.69 0.64 0.58 0.52 0.50 0.54 0.54 0.51 0.49 0.48 0.47 0.42 0.33
0.36 0.25 0.11 0.06 0.04 0.07 0.08 0.07 0.08 0.10 0.07 0.03 0.04 0.04 0.04 0.05 0.08 0.12 0.13 0.13 0.14 0.17 0.25 0.34 0.47 0.60 0.65 0.69 0.78 0.86 0.87 0.86 0.87 0.82 0.77 0.74 0.76 0.72 0.68 0.62 0.62 0.62 0.58 0.56 0.56 0.59 0.54 0.49 0.45
0.27 0.18 0.13 0.10 0.10 0.11 0.11 0.11 0.11 0.10 0.08 0.05 0.05 0.07 0.08 0.08 0.10 0.12 0.14 0.15 0.18 0.22 0.29 0.38 0.53 0.64 0.68 0.67 0.75 0.81 0.80 0.77 0.78 0.79 0.80 0.80 0.80 0.76 0.74 0.70 0.70 0.72 0.68 0.64 0.61 0.58 0.55 0.52 0.47
0.24 0.14 0.11 0.12 0.13 0.14 0.13 0.12 0.11 0.08 0.04 0.05 0.06 0.07 0.10 0.09 0.11 0.11 0.15 0.22 0.24 0.26 0.34 0.46 0.56 0.67 0.75 0.78 0.81 0.82 0.76 0.71 0.73 0.76 0.80 0.75 0.69 0.64 0.60 0.60 0.59 0.54 0.52 0.52 0.53 0.54 0.52 0.50 0.47
0.20 0.15 0.11 0.12 0.14 0.15 0.16 0.12 0.10 0.06 0.03 0.06 0.08 0.08 0.09 0.09 0.11 0.13 0.16 0.23 0.28 0.29 0.37 0.50 0.62 0.72 0.81 0.79 0.82 0.82 0.78 0.74 0.75 0.73 0.70 0.68 0.64 0.60 0.55 0.52 0.52 0.47 0.42 0.40 0.39 0.39 0.40 0.41 0.39
0.24 0.25 0.18 0.11 0.12 0.13 0.20 0.20 0.08 0.05 0.06 0.08 0.10 0.09 0.08 0.09 0.12 0.13 0.14 0.17 0.24 0.32 0.43 0.53 0.66 0.82 0.89 0.86 0.87 0.89 0.86 0.82 0.77 0.74 0.69 0.68 0.65 0.62 0.60 0.55 0.51 0.49 0.47 0.46 0.43 0.42 0.40 0.37 0.35
0.37 0.43 0.32 0.13 0.10 0.14 0.29 0.24 0.06 0.05 0.09 0.12 0.11 0.11 0.10 0.10 0.13 0.15 0.18 0.20 0.25 0.36 0.49 0.59 0.72 0.87 0.96 0.96 0.95 0.92 0.90 0.91 0.85 0.79 0.75 0.71 0.66 0.63 0.62 0.59 0.55 0.55 0.55 0.56 0.54 0.48 0.45 0.41 0.37
0.52 0.46 0.28 0.12 0.09 0.17 0.29 0.21 0.06 0.05 0.10 0.12 0.12 0.13 0.12 0.12 0.14 0.18 0.21 0.23 0.26 0.36 0.48 0.61 0.71 0.86 0.99 1.05 1.03 1.02 0.95 0.95 0.95 0.88 0.80 0.76 0.69 0.64 0.61 0.60 0.61 0.64 0.67 0.66 0.61 0.57 0.50 0.47 0.43
0.46 0.31 0.20 0.12 0.09 0.16 0.21 0.14 0.06 0.06 0.10 0.11 0.12 0.15 0.14 0.15 0.17 0.21 0.24 0.28 0.31 0.36 0.47 0.61 0.74 0.92 1.04 1.21 1.23 1.21 1.11 0.99 0.98 0.95 0.83 0.74 0.73 0.68 0.66 0.64 0.65 0.70 0.73 0.72 0.68 0.61 0.56 0.53 0.51
0.30 0.29 0.21 0.10 0.08 0.17 0.16 0.11 0.08 0.08 0.10 0.11 0.13 0.16 0.17 0.17 0.21 0.24 0.31 0.38 0.41 0.43 0.49 0.57 0.72 0.90 1.07 1.20 1.27 1.23 1.16 1.00 0.95 0.93 0.89 0.80 0.75 0.77 0.76 0.69 0.70 0.69 0.70 0.68 0.67 0.67 0.66 0.62 0.60
0.33 0.37 0.28 0.16 0.10 0.19 0.18 0.11 0.08 0.08 0.11 0.13 0.14 0.18 0.20 0.17 0.20 0.22 0.28 0.40 0.45 0.48 0.51 0.55 0.66 0.79 0.97 1.11 1.17 1.23 1.18 1.09 1.00 0.96 0.94 0.86 0.77 0.80 0.85 0.78 0.72 0.71 0.69 0.71 0.72 0.71 0.71 0.71 0.67
0.40 0.35 0.27 0.24 0.19 0.22 0.25 0.18 0.06 0.06 0.07 0.10 0.11 0.14 0.17 0.19 0.19 0.20 0.25 0.36 0.45 0.48 0.53 0.58 0.63 0.70 0.82 1.08 1.31 1.43 1.47 1.35 1.18 1.06 0.97 0.86 0.79 0.74 0.81 0.85 0.79 0.74 0.71 0.69 0.67 0.67 0.67 0.70 0.65
0.46 0.23 0.24 0.29 0.45 0.45 0.36 0.39 0.09 0.04 0.05 0.07 0.09 0.10 0.12 0.16 0.16 0.17 0.22 0.30 0.39 0.46 0.57 0.66 0.66 0.73 0.83 1.00 1.30 1.46 1.50 1.38 1.12 0.97 0.95 0.91 0.85 0.78 0.75 0.82 0.84 0.82 0.78 0.73 0.68 0.66 0.66 0.72 0.74
0.36 0.24 0.28 0.35 0.56 0.64 0.43 0.47 0.16 0.07 0.08 0.07 0.07 0.08 0.09 0.13 0.15 0.14 0.17 0.23 0.33 0.47 0.59 0.70 0.76 0.82 0.92 1.00 1.18 1.41 1.51 1.43 1.29 1.14 1.02 0.96 0.94 0.89 0.80 0.77 0.81 0.82 0.82 0.80 0.75 0.70 0.71 0.74 0.77
0.33 0.39 0.48 0.57 0.93 1.20 0.43 0.39 0.22 0.12 0.13 0.10 0.08 0.09 0.10 0.13 0.15 0.14 0.15 0.18 0.29 0.45 0.54 0.70 0.82 0.85 0.98 1.03 1.13 1.27 1.44 1.54 1.50 1.38 1.25 1.09 1.03 0.98 0.95 0.82 0.79 0.81 0.81 0.83 0.80 0.74 0.73 0.75 0.75
0.60 1.02 1.54 1.67 1.73 1.05 0.21 0.27 0.25 0.13 0.10 0.12 0.14 0.13 0.12 0.12 0.14 0.14 0.13 0.16 0.23 0.41 0.53 0.67 0.83 0.83 0.92 1.00 1.08 1.20 1.35 1.50 1.60 1.51 1.34 1.23 1.18 1.09 0.98 0.93 0.84 0.82 0.80 0.81 0.82 0.82 0.76 0.72 0.77
0.63 0.93 1.28 1.17 0.74 0.29 0.14 0.23 0.20 0.11 0.07 0.06 0.09 0.11 0.12 0.12 0.12 0.14 0.14 0.15 0.19 0.29 0.43 0.57 0.78 0.80 0.82 0.90 0.99 1.13 1.31 1.48 1.57 1.59 1.42 1.30 1.22 1.11 1.00 0.95 0.89 0.83 0.84 0.86 0.85 0.83 0.81 0.77 0.74
0.58 0.66 0.61 0.85 0.61 0.36 0.24 0.19 0.16 0.08 0.05 0.04 0.05 0.07 0.10 0.12 0.11 0.12 0.15 0.16 0.19 0.25 0.35 0.49 0.73 0.80 0.75 0.81 0.90 1.03 1.18 1.38 1.47 1.51 1.50 1.37 1.29 1.22 1.15 1.06 1.00 0.93 0.91 0.90 0.90 0.87 0.82 0.82 0.82
0.47 0.59 0.69 1.12 1.05 0.61 0.34 0.20 0.21 0.14 0.08 0.06 0.07 0.07 0.09 0.10 0.10 0.10 0.13 0.14 0.18 0.22 0.32 0.46 0.63 0.81 0.79 0.78 0.85 0.94 1.03 1.20 1.34 1.45 1.55 1.43 1.36 1.32 1.33 1.27 1.20 1.10 1.06 1.03 1.00 0.95 0.87 0.85 0.85
0.58 0.75 0.96 1.01 0.80 0.65 0.48 0.34 0.28 0.20 0.14 0.12 0.09 0.08 0.09 0.09 0.10 0.10 0.12 0.13 0.15 0.19 0.27 0.43 0.57 0.72 0.85 0.87 0.84 0.93 1.01 1.13 1.23 1.26 1.34 1.43 1.44 1.38 1.44 1.47 1.42 1.33 1.23 1.19 1.18 1.12 1.05 1.00 0.92
0.63 0.72 0.83 1.05 0.81 0.46 0.47 0.41 0.26 0.17 0.14 0.14 0.11 0.09 0.08 0.08 0.10 0.10 0.11 0.12 0.14 0.17 0.22 0.34 0.52 0.66 0.78 0.87 0.91 0.92 1.00 1.13 1.19 1.16 1.14 1.21 1.32 1.35 1.40 1.58 1.60 1.53 1.43 1.34 1.35 1.35 1.26 1.21 1.12

GEFSSGP_prec_meanprecacc_252.txt.gz
Total_Precipitation_Accumulation
0.08 0.07 0.08 0.09 0.07 0.04 0.00 0.00 0.00 0.00 0.00 0.00 0.00 0.00 0.00 0.01 0.00 0.01 0.02 0.02 0.03 0.05 0.08 0.20 0.27 0.32 0.38 0.40 0.38 0.34 0.31 0.37 0.42 0.45 0.50 0.59 0.59 0.56 0.55 0.53 0.52 0.54 0.62 0.65 0.67 0.65 0.62 0.56 0.57
0.08 0.10 0.12 0.12 0.06 0.02 0.00 0.00 0.00 0.00 0.00 0.00 0.00 0.00 0.00 0.00 0.00 0.01 0.03 0.03 0.02 0.03 0.06 0.13 0.25 0.31 0.37 0.38 0.36 0.35 0.34 0.35 0.40 0.44 0.48 0.53 0.55 0.56 0.56 0.53 0.54 0.58 0.65 0.70 0.70 0.69 0.65 0.59 0.55
0.12 0.16 0.15 0.12 0.05 0.01 0.00 0.00 0.00 0.00 0.00 0.00 0.00 0.00 0.00 0.00 0.00 0.01 0.02 0.02 0.02 0.03 0.05 0.14 0.25 0.32 0.37 0.40 0.39 0.38 0.37 0.39 0.40 0.43 0.48 0.55 0.55 0.55 0.51 0.48 0.49 0.54 0.64 0.71 0.70 0.64 0.61 0.60 0.58
0.16 0.22 0.20 0.12 0.02 0.00 0.00 0.00 0.00 0.00 0.00 0.00 0.00 0.00 0.00 0.00 0.00 0.01 0.02 0.02 0.02 0.04 0.06 0.15 0.27 0.34 0.39 0.42 0.42 0.42 0.42 0.45 0.47 0.49 0.51 0.58 0.60 0.59 0.54 0.48 0.46 0.46 0.52 0.60 0.60 0.58 0.57 0.58 0.53
0.24 0.25 0.20 0.09 0.01 0.00 0.00 0.00 0.00 0.00 0.00 0.00 0.00 0.00 0.00 0.00 0.00 0.01 0.02 0.02 0.02 0.04 0.08 0.18 0.31 0.40 0.44 0.45 0.45 0.47 0.48 0.51 0.54 0.56 0.58 0.61 0.61 0.60 0.58 0.56 0.51 0.48 0.46 0.50 0.53 0.53 0.54 0.55 0.51
0.32 0.30 0.18 0.06 0.01 0.00 0.00 0.00 0.00 0.00 0.00 0.00 0.01 0.01 0.00 0.01 0.01 0.02 0.02 0.03 0.03 0.05 0.10 0.21 0.38 0.46 0.51 0.54 0.53 0.54 0.56 0.58 0.60 0.62 0.65 0.64 0.61 0.59 0.58 0.57 0.52 0.48 0.44 0.42 0.44 0.47 0.48 0.49 0.49
0.31 0.29 0.14 0.05 0.02 0.01 0.01 0.00 0.01 0.00 0.00 0.00 0.00 0.01 0.01 0.02 0.02 0.02 0.03 0.04 0.06 0.09 0.14 0.24 0.38 0.48 0.58 0.62 0.59 0.59 0.61 0.62 0.66 0.70 0.70 0.67 0.62 0.62 0.63 0.59 0.53 0.50 0.48 0.43 0.38 0.38 0.40 0.39 0.41
0.36 0.38 0.18 0.07 0.04 0.02 0.01 0.00 0.01 0.01 0.01 0.00 0.01 0.01 0.01 0.02 0.03 0.04 0.06 0.09 0.11 0.15 0.20 0.28 0.40 0.47 0.55 0.63 0.66 0.64 0.66 0.68 0.72 0.75 0.73 0.68 0.67 0.66 0.63 0.57 0.51 0.52 0.51 0.46 0.42 0.39 0.36 0.34 0.33
0.48 0.52 0.23 0.07 0.05 0.04 0.02 0.02 0.01 0.01 0.02 0.01 0.01 0.01 0.01 0.02 0.04 0.06 0.10 0.15 0.19 0.23 0.27 0.35 0.45 0.53 0.60 0.65 0.69 0.78 0.81 0.84 0.84 0.80 0.77 0.76 0.73 0.68 0.60 0.49 0.48 0.53 0.53 0.47 0.44 0.43 0.39 0.36 0.30
0.51 0.43 0.18 0.05 0.04 0.05 0.05 0.05 0.05 0.05 0.04 0.02 0.02 0.02 0.02 0.03 0.06 0.08 0.10 0.14 0.18 0.23 0.29 0.37 0.48 0.56 0.67 0.71 0.80 0.91 0.91 0.90 0.86 0.76 0.74 0.77 0.70 0.65 0.59 0.52 0.51 0.55 0.56 0.53 0.50 0.48 0.47 0.42 0.33
0.39 0.28 0.13 0.07 0.05 0.08 0.08 0.08 0.09 0.10 0.07 0.04 0.05 0.05 0.05 0.07 0.10 0.13 0.14 0.15 0.15 0.19 0.27 0.37 0.51 0.63 0.70 0.73 0.83 0.90 0.90 0.89 0.89 0.82 0.78 0.75 0.77 0.73 0.68 0.62 0.63 0.62 0.59 0.58 0.57 0.59 0.54 0.49 0.45
0.29 0.20 0.14 0.11 0.11 0.12 0.12 0.11 0.11 0.11 0.08 0.05 0.06 0.09 0.10 0.11 0.12 0.13 0.15 0.17 0.19 0.24 0.31 0.41 0.57 0.68 0.73 0.72 0.80 0.86 0.85 0.80 0.81 0.79 0.80 0.80 0.81 0.77 0.75 0.70 0.71 0.72 0.69 0.65 0.62 0.59 0.55 0.52 0.47
0.26 0.16 0.12 0.13 0.14 0.15 0.15 0.13 0.12 0.08 0.04 0.06 0.06 0.09 0.13 0.13 0.14 0.14 0.17 0.24 0.26 0.28 0.36 0.49 0.61 0.72 0.80 0.83 0.86 0.87 0.82 0.76 0.76 0.79 0.80 0.75 0.70 0.65 0.60 0.61 0.60 0.55 0.53 0.53 0.54 0.55 0.53 0.51 0.47
0.22 0.16 0.13 0.13 0.15 0.17 0.19 0.14 0.11 0.07 0.04 0.07 0.09 0.09 0.11 0.13 0.15 0.17 0.20 0.26 0.30 0.32 0.40 0.53 0.66 0.77 0.87 0.85 0.88 0.88 0.85 0.82 0.82 0.78 0.73 0.70 0.65 0.61 0.56 0.52 0.52 0.48 0.43 0.40 0.41 0.41 0.42 0.42 0.40
0.25 0.26 0.19 0.12 0.13 0.15 0.24 0.23 0.10 0.05 0.06 0.09 0.11 0.10 0.10 0.12 0.16 0.18 0.19 0.22 0.28 0.35 0.46 0.57 0.70 0.87 0.95 0.92 0.94 0.95 0.92 0.88 0.84 0.80 0.75 0.71 0.66 0.63 0.61 0.56 0.52 0.49 0.47 0.46 0.44 0.44 0.43 0.40 0.37
0.40 0.45 0.35 0.14 0.12 0.16 0.33 0.29 0.08 0.05 0.10 0.12 0.12 0.12 0.11 0.12 0.16 0.21 0.24 0.26 0.31 0.42 0.54 0.64 0.77 0.93 1.02 1.04 1.03 1.00 0.97 0.96 0.91 0.84 0.80 0.76 0.70 0.65 0.63 0.60 0.56 0.56 0.56 0.57 0.54 0.49 0.46 0.43 0.39
0.56 0.49 0.30 0.14 0.10 0.19 0.33 0.25 0.08 0.07 0.11 0.12 0.13 0.14 0.13 0.13 0.17 0.23 0.27 0.30 0.34 0.44 0.56 0.67 0.78 0.94 1.07 1.14 1.13 1.13 1.04 1.02 1.00 0.94 0.86 0.81 0.74 0.68 0.64 0.62 0.63 0.65 0.69 0.67 0.63 0.58 0.51 0.47 0.43
0.49 0.33 0.21 0.14 0.12 0.19 0.24 0.17 0.08 0.09 0.12 0.11 0.13 0.15 0.15 0.16 0.18 0.25 0.30 0.35 0.40 0.45 0.56 0.69 0.83 1.00 1.13 1.29 1.32 1.31 1.23 1.10 1.06 1.01 0.89 0.80 0.78 0.73 0.69 0.67 0.67 0.71 0.74 0.73 0.69 0.63 0.57 0.54 0.52
0.33 0.32 0.23 0.13 0.11 0.21 0.20 0.14 0.10 0.10 0.13 0.13 0.14 0.17 0.18 0.18 0.23 0.28 0.37 0.45 0.49 0.51 0.57 0.64 0.80 0.98 1.14 1.27 1.35 1.31 1.26 1.13 1.06 1.02 0.96 0.86 0.82 0.83 0.79 0.71 0.71 0.70 0.71 0.69 0.68 0.68 0.67 0.63 0.62
0.37 0.40 0.29 0.19 0.13 0.22 0.22 0.14 0.10 0.10 0.13 0.15 0.15 0.19 0.21 0.18 0.21 0.26 0.34 0.45 0.50 0.53 0.56 0.62 0.75 0.89 1.05 1.19 1.24 1.30 1.26 1.19 1.12 1.07 1.02 0.93 0.83 0.88 0.92 0.82 0.75 0.73 0.70 0.72 0.74 0.72 0.72 0.73 0.68
0.42 0.37 0.29 0.27 0.24 0.26 0.30 0.22 0.09 0.08 0.09 0.12 0.13 0.15 0.18 0.20 0.20 0.23 0.30 0.40 0.49 0.52 0.57 0.64 0.71 0.82 0.95 1.18 1.40 1.52 1.56 1.44 1.29 1.17 1.05 0.93 0.86 0.82 0.91 0.94 0.84 0.78 0.73 0.70 0.68 0.69 0.68 0.71 0.66
0.48 0.25 0.25 0.31 0.50 0.51 0.41 0.44 0.12 0.06 0.07 0.08 0.11 0.11 0.12 0.17 0.17 0.19 0.26 0.34 0.43 0.50 0.61 0.70 0.71 0.80 0.94 1.13 1.39 1.54 1.59 1.45 1.20 1.06 1.03 0.97 0.91 0.86 0.83 0.91 0.90 0.86 0.82 0.75 0.69 0.67 0.67 0.73 0.75
0.38 0.26 0.29 0.37 0.60 0.70 0.47 0.51 0.18 0.08 0.09 0.07 0.08 0.09 0.09 0.14 0.16 0.15 0.21 0.27 0.37 0.51 0.62 0.74 0.80 0.87 0.99 1.09 1.28 1.51 1.60 1.50 1.35 1.22 1.10 1.02 0.99 0.94 0.86 0.84 0.87 0.86 0.84 0.83 0.77 0.71 0.72 0.75 0.78
0.36 0.42 0.51 0.60 0.99 1.25 0.46 0.42 0.25 0.14 0.15 0.11 0.09 0.09 0.10 0.13 0.17 0.15 0.18 0.23 0.33 0.48 0.57 0.74 0.86 0.90 1.03 1.09 1.21 1.36 1.54 1.62 1.56 1.44 1.30 1.14 1.07 1.01 0.98 0.86 0.85 0.86 0.85 0.85 0.82 0.76 0.74 0.76 0.76
0.63 1.07 1.62 1.78 1.84 1.11 0.23 0.29 0.28 0.14 0.11 0.13 0.14 0.13 0.12 0.13 0.15 0.16 0.17 0.19 0.27 0.44 0.55 0.69 0.87 0.88 0.97 1.05 1.14 1.26 1.43 1.58 1.67 1.56 1.38 1.26 1.21 1.12 1.01 0.96 0.87 0.86 0.85 0.83 0.83 0.83 0.77 0.73 0.78
0.67 0.98 1.33 1.23 0.79 0.32 0.16 0.25 0.23 0.13 0.08 0.08 0.09 0.11 0.12 0.12 0.13 0.16 0.16 0.18 0.22 0.31 0.45 0.59 0.80 0.83 0.86 0.94 1.03 1.18 1.37 1.54 1.63 1.65 1.46 1.32 1.24 1.14 1.03 0.98 0.91 0.86 0.87 0.89 0.87 0.85 0.82 0.77 0.75
0.63 0.70 0.64 0.89 0.64 0.38 0.26 0.22 0.18 0.09 0.06 0.05 0.06 0.07 0.10 0.13 0.12 0.13 0.17 0.18 0.21 0.27 0.37 0.51 0.75 0.83 0.78 0.84 0.94 1.06 1.22 1.43 1.53 1.57 1.54 1.39 1.31 1.24 1.17 1.09 1.04 0.96 0.94 0.93 0.91 0.88 0.83 0.82 0.82
0.50 0.63 0.72 1.16 1.08 0.63 0.35 0.21 0.23 0.16 0.10 0.08 0.08 0.08 0.09 0.10 0.11 0.11 0.15 0.16 0.19 0.23 0.33 0.47 0.66 0.84 0.83 0.81 0.88 0.97 1.05 1.23 1.40 1.53 1.61 1.48 1.40 1.36 1.36 1.30 1.25 1.14 1.09 1.05 1.01 0.96 0.87 0.86 0.86
0.61 0.79 1.00 1.04 0.83 0.67 0.50 0.36 0.30 0.22 0.17 0.14 0.11 0.09 0.09 0.10 0.11 0.11 0.13 0.14 0.17 0.20 0.28 0.44 0.59 0.75 0.89 0.91 0.89 0.96 1.03 1.16 1.28 1.33 1.40 1.47 1.46 1.40 1.46 1.50 1.45 1.37 1.27 1.23 1.20 1.14 1.06 1.01 0.93
0.66 0.75 0.87 1.08 0.84 0.48 0.48 0.43 0.27 0.18 0.16 0.15 0.12 0.09 0.08 0.09 0.10 0.11 0.11 0.13 0.14 0.17 0.23 0.35 0.53 0.68 0.80 0.90 0.94 0.96 1.04 1.17 1.24 1.23 1.21 1.25 1.34 1.37 1.42 1.60 1.64 1.57 1.47 1.37 1.38 1.37 1.28 1.22 1.14